Observation data for Stinnett on 12/09/2018      Previous  Date       Current Mesonet Observations  Soil Data  Daily Summary Page  Observations in Plain Language
KST3 090600Z 06002KT M02/M11 A3031 RMK A01 T10211109  RH  051%=      5-min Rain = 0
KST3 090601Z 06003KT M02/M11 A3031 RMK A01 T10211108  RH  051%=      5-min Rain = 0
KST3 090602Z 06003KT M02/M11 A3031 RMK A01 T10201109  RH  051%=      5-min Rain = 0
KST3 090603Z 06003KT M02/M11 A3031 RMK A01 T10201109  RH  051%=      5-min Rain = 0
KST3 090604Z 06003KT M02/M11 A3031 RMK A01 T10201109  RH  050%=      5-min Rain = 0
KST3 090605Z 06003KT M02/M11 A3031 RMK A01 T10191109  RH  050%=      5-min Rain = 0
KST3 090606Z 06003KT M02/M11 A3031 RMK A01 T10201109  RH  050%=      5-min Rain = 0
KST3 090607Z 06003KT M02/M11 A3031 RMK A01 T10201109  RH  050%=      5-min Rain = 0
KST3 090608Z 06004KT M02/M11 A3031 RMK A01 T10201109  RH  050%=      5-min Rain = 0
KST3 090609Z 06004KT M02/M11 A3031 RMK A01 T10201109  RH  050%=      5-min Rain = 0
KST3 090610Z 06004KT M02/M11 A3031 RMK A01 T10201110  RH  050%=      5-min Rain = 0
KST3 090611Z 06004KT M02/M11 A303 RMK A01 T10211110  RH  050%=      5-min Rain = 0
KST3 090612Z 06004KT M02/M11 A303 RMK A01 T10211110  RH  050%=      5-min Rain = 0
KST3 090613Z 06004KT M02/M11 A303 RMK A01 T10221111  RH  051%=      5-min Rain = 0
KST3 090614Z 06004KT M02/M11 A303 RMK A01 T10221111  RH  051%=      5-min Rain = 0
KST3 090615Z 05004KT M02/M11 A303 RMK A01 T10231111  RH  051%=      5-min Rain = 0
KST3 090616Z 05004KT M02/M11 A303 RMK A01 T10231111  RH  051%=      5-min Rain = 0
KST3 090617Z 05004KT M02/M11 A303 RMK A01 T10231112  RH  051%=      5-min Rain = 0
KST3 090618Z 05004KT M02/M11 A303 RMK A01 T10231111  RH  051%=      5-min Rain = 0
KST3 090619Z 05004KT M02/M11 A303 RMK A01 T10231111  RH  051%=      5-min Rain = 0
KST3 090620Z 06004KT M02/M11 A303 RMK A01 T10231111  RH  051%=      5-min Rain = 0
KST3 090621Z 06004KT M02/M11 A303 RMK A01 T10231111  RH  051%=      5-min Rain = 0
KST3 090622Z 06005KT M02/M11 A303 RMK A01 T10241113  RH  050%=      5-min Rain = 0
KST3 090623Z 06004KT M02/M11 A303 RMK A01 T10231114  RH  050%=      5-min Rain = 0
KST3 090624Z 07004KT M02/M12 A303 RMK A01 T10241116  RH  049%=      5-min Rain = 0
KST3 090625Z 07004KT M02/M12 A303 RMK A01 T10231116  RH  049%=      5-min Rain = 0
KST3 090626Z 07004KT M02/M12 A303 RMK A01 T10221117  RH  048%=      5-min Rain = 0
KST3 090627Z 07004KT M02/M12 A3031 RMK A01 T10221117  RH  048%=      5-min Rain = 0
KST3 090628Z 07004KT M02/M12 A3031 RMK A01 T10221117  RH  048%=      5-min Rain = 0
KST3 090629Z 07003KT M02/M12 A3031 RMK A01 T10221117  RH  048%=      5-min Rain = 0
KST3 090630Z 07003KT M02/M12 A3031 RMK A01 T10221117  RH  048%=      5-min Rain = 0
KST3 090631Z 06003KT M02/M12 A3031 RMK A01 T10221117  RH  048%=      5-min Rain = 0
KST3 090632Z 06003KT M02/M12 A3031 RMK A01 T10221118  RH  048%=      5-min Rain = 0
KST3 090633Z 06003KT M02/M12 A3031 RMK A01 T10221118  RH  048%=      5-min Rain = 0
KST3 090634Z 06003KT M02/M12 A3031 RMK A01 T10221118  RH  047%=      5-min Rain = 0
KST3 090635Z 06003KT M02/M12 A3031 RMK A01 T10221118  RH  047%=      5-min Rain = 0
KST3 090636Z 06003KT M02/M12 A3031 RMK A01 T10221119  RH  047%=      5-min Rain = 0
KST3 090637Z 06003KT M02/M12 A3031 RMK A01 T10221119  RH  047%=      5-min Rain = 0
KST3 090638Z 06003KT M02/M12 A3031 RMK A01 T10221119  RH  047%=      5-min Rain = 0
KST3 090639Z 06003KT M02/M12 A3031 RMK A01 T10221119  RH  048%=      5-min Rain = 0
KST3 090640Z 06003KT M02/M12 A3031 RMK A01 T10221118  RH  048%=      5-min Rain = 0
KST3 090641Z 06003KT M02/M12 A3031 RMK A01 T10231118  RH  048%=      5-min Rain = 0
KST3 090642Z 06003KT M02/M12 A3031 RMK A01 T10231118  RH  048%=      5-min Rain = 0
KST3 090643Z 06003KT M02/M12 A3031 RMK A01 T10231119  RH  048%=      5-min Rain = 0
KST3 090644Z 06002KT M02/M12 A3031 RMK A01 T10231119  RH  048%=      5-min Rain = 0
KST3 090645Z 06002KT M02/M12 A3031 RMK A01 T10231119  RH  048%=      5-min Rain = 0
KST3 090646Z 06003KT M02/M12 A3031 RMK A01 T10241120  RH  048%=      5-min Rain = 0
KST3 090647Z 06003KT M02/M12 A3031 RMK A01 T10231121  RH  047%=      5-min Rain = 0
KST3 090648Z 06003KT M02/M12 A3031 RMK A01 T10231121  RH  047%=      5-min Rain = 0
KST3 090649Z 06003KT M02/M12 A3031 RMK A01 T10221121  RH  047%=      5-min Rain = 0
KST3 090650Z 06003KT M02/M12 A3031 RMK A01 T10221121  RH  047%=      5-min Rain = 0
KST3 090651Z 05003KT M02/M12 A3031 RMK A01 T10231121  RH  047%=      5-min Rain = 0
KST3 090652Z 05003KT M02/M12 A303 RMK A01 T10231121  RH  047%=      5-min Rain = 0
KST3 090653Z 05002KT M02/M12 A3031 RMK A01 T10231123  RH  046%=      5-min Rain = 0
KST3 090654Z 04002KT M02/M12 A3031 RMK A01 T10231123  RH  046%=      5-min Rain = 0
KST3 090655Z 04002KT M02/M12 A3031 RMK A01 T10231124  RH  046%=      5-min Rain = 0
KST3 090656Z 04002KT M02/M12 A3031 RMK A01 T10241124  RH  046%=      5-min Rain = 0
KST3 090657Z 04002KT M02/M12 A3031 RMK A01 T10241124  RH  046%=      5-min Rain = 0
KST3 090658Z 04002KT M03/M13 A3031 RMK A01 T10251125  RH  046%=      5-min Rain = 0
KST3 090659Z 03002KT M03/M12 A3031 RMK A01 T10251124  RH  046%=      5-min Rain = 0
KST3 090700Z 02002KT M03/M13 A3031 RMK A01 T10251125  RH  046%=      5-min Rain = 0
KST3 090701Z 02002KT M03/M13 A3031 RMK A01 T10251125  RH  046%=      5-min Rain = 0
KST3 090702Z 02002KT M02/M13 A3031 RMK A01 T10241125  RH  046%=      5-min Rain = 0
KST3 090703Z 02002KT M02/M13 A3031 RMK A01 T10231125  RH  046%=      5-min Rain = 0
KST3 090704Z 02002KT M02/M13 A3031 RMK A01 T10231125  RH  046%=      5-min Rain = 0
KST3 090705Z 02002KT M02/M13 A3031 RMK A01 T10231125  RH  045%=      5-min Rain = 0
KST3 090706Z 02002KT M02/M13 A3031 RMK A01 T10231126  RH  045%=      5-min Rain = 0
KST3 090707Z 02002KT M02/M13 A3031 RMK A01 T10231127  RH  045%=      5-min Rain = 0
KST3 090708Z 02001KT M02/M13 A3031 RMK A01 T10231128  RH  044%=      5-min Rain = 0
KST3 090709Z 02001KT M02/M13 A3031 RMK A01 T10231129  RH  044%=      5-min Rain = 0
KST3 090710Z 02001KT M02/M13 A3031 RMK A01 T10231129  RH  044%=      5-min Rain = 0
KST3 090711Z 02001KT M02/M13 A3031 RMK A01 T10231130  RH  044%=      5-min Rain = 0
KST3 090712Z 02001KT M02/M13 A3031 RMK A01 T10221130  RH  043%=      5-min Rain = 0
KST3 090713Z 01001KT M02/M13 A3031 RMK A01 T10211131  RH  043%=      5-min Rain = 0
KST3 090714Z 01001KT M02/M13 A3031 RMK A01 T10211131  RH  043%=      5-min Rain = 0
KST3 090715Z 01001KT M02/M13 A3031 RMK A01 T10211131  RH  043%=      5-min Rain = 0
KST3 090716Z 35000KT M02/M13 A3031 RMK A01 T10231130  RH  044%=      5-min Rain = 0
KST3 090717Z 32001KT M03/M13 A3031 RMK A01 T10261129  RH  045%=      5-min Rain = 0
KST3 090718Z 32001KT M03/M13 A3031 RMK A01 T10271129  RH  045%=      5-min Rain = 0
KST3 090719Z 32001KT M03/M13 A3031 RMK A01 T10271129  RH  046%=      5-min Rain = 0
KST3 090720Z 32001KT M03/M13 A3031 RMK A01 T10291128  RH  046%=      5-min Rain = 0
KST3 090721Z 32000KT M03/M13 A3031 RMK A01 T10311127  RH  047%=      5-min Rain = 0
KST3 090722Z 28001KT M03/M13 A3031 RMK A01 T10331126  RH  049%=      5-min Rain = 0
KST3 090723Z 28002KT M04/M13 A3031 RMK A01 T10371125  RH  050%=      5-min Rain = 0
KST3 090724Z 27002KT M04/M12 A3031 RMK A01 T10411124  RH  052%=      5-min Rain = 0
KST3 090725Z 27002KT M04/M12 A3031 RMK A01 T10441123  RH  054%=      5-min Rain = 0
KST3 090726Z 27001KT M05/M12 A3031 RMK A01 T10451121  RH  056%=      5-min Rain = 0
KST3 090727Z 27001KT M05/M12 A3031 RMK A01 T10461120  RH  056%=      5-min Rain = 0
KST3 090728Z 27001KT M05/M12 A3031 RMK A01 T10461118  RH  057%=      5-min Rain = 0
KST3 090729Z 27001KT M05/M12 A3031 RMK A01 T10471118  RH  058%=      5-min Rain = 0
KST3 090730Z 27001KT M05/M12 A3031 RMK A01 T10481118  RH  058%=      5-min Rain = 0
KST3 090731Z 27001KT M05/M12 A3031 RMK A01 T10481118  RH  058%=      5-min Rain = 0
KST3 090732Z 27001KT M05/M12 A3031 RMK A01 T10481119  RH  058%=      5-min Rain = 0
KST3 090733Z 27000KT M05/M12 A3031 RMK A01 T10481120  RH  057%=      5-min Rain = 0
KST3 090734Z 27001KT M05/M12 A3031 RMK A01 T10461121  RH  056%=      5-min Rain = 0
KST3 090735Z 27001KT M04/M12 A3031 RMK A01 T10441121  RH  055%=      5-min Rain = 0
KST3 090736Z 27001KT M04/M12 A3031 RMK A01 T10421122  RH  054%=      5-min Rain = 0
KST3 090737Z 27000KT M04/M12 A3031 RMK A01 T10401124  RH  052%=      5-min Rain = 0
KST3 090738Z 00000KT M04/M13 A3031 RMK A01 T10381125  RH  051%=      5-min Rain = 0
KST3 090739Z 00000KT M04/M13 A3031 RMK A01 T10351127  RH  049%=      5-min Rain = 0
KST3 090740Z 00000KT M03/M13 A3031 RMK A01 T10321128  RH  047%=      5-min Rain = 0
KST3 090741Z 00000KT M03/M13 A3031 RMK A01 T10301129  RH  046%=      5-min Rain = 0
KST3 090742Z 00000KT M03/M13 A3031 RMK A01 T10281131  RH  045%=      5-min Rain = 0
KST3 090743Z 00000KT M03/M13 A3031 RMK A01 T10261132  RH  044%=      5-min Rain = 0
KST3 090744Z 00000KT M03/M13 A303 RMK A01 T10251133  RH  043%=      5-min Rain = 0
KST3 090745Z 00000KT M03/M13 A303 RMK A01 T10251133  RH  044%=      5-min Rain = 0
KST3 090746Z 00000KT M03/M13 A303 RMK A01 T10261133  RH  044%=      5-min Rain = 0
KST3 090747Z 00000KT M03/M13 A303 RMK A01 T10261133  RH  044%=      5-min Rain = 0
KST3 090748Z 00000KT M03/M13 A303 RMK A01 T10261133  RH  044%=      5-min Rain = 0
KST3 090749Z 00000KT M03/M13 A303 RMK A01 T10271133  RH  044%=      5-min Rain = 0
KST3 090750Z 00000KT M03/M13 A303 RMK A01 T10271134  RH  044%=      5-min Rain = 0
KST3 090751Z 00000KT M03/M14 A303 RMK A01 T10271135  RH  043%=      5-min Rain = 0
KST3 090752Z 00000KT M03/M14 A303 RMK A01 T10261135  RH  043%=      5-min Rain = 0
KST3 090753Z 00000KT M03/M14 A303 RMK A01 T10251135  RH  043%=      5-min Rain = 0
KST3 090754Z 00000KT M03/M14 A303 RMK A01 T10251136  RH  042%=      5-min Rain = 0
KST3 090755Z 00000KT M03/M14 A303 RMK A01 T10251135  RH  043%=      5-min Rain = 0
KST3 090756Z 34001KT M03/M14 A303 RMK A01 T10261135  RH  043%=      5-min Rain = 0
KST3 090757Z 34001KT M03/M14 A303 RMK A01 T10261135  RH  043%=      5-min Rain = 0
KST3 090758Z 34002KT M03/M14 A3031 RMK A01 T10261135  RH  043%=      5-min Rain = 0
KST3 090759Z 34002KT M03/M14 A3031 RMK A01 T10261135  RH  043%=      5-min Rain = 0
KST3 090800Z 34002KT M03/M13 A3031 RMK A01 T10271134  RH  044%=      5-min Rain = 0
KST3 090801Z 34002KT M03/M13 A3031 RMK A01 T10281133  RH  044%=      5-min Rain = 0
KST3 090802Z 34002KT M03/M13 A3031 RMK A01 T10291133  RH  045%=      5-min Rain = 0
KST3 090803Z 34003KT M03/M13 A3031 RMK A01 T10301133  RH  045%=      5-min Rain = 0
KST3 090804Z 34003KT M03/M13 A3031 RMK A01 T10311132  RH  045%=      5-min Rain = 0
KST3 090805Z 34003KT M03/M13 A3031 RMK A01 T10311131  RH  046%=      5-min Rain = 0
KST3 090806Z 34003KT M03/M13 A3031 RMK A01 T10331131  RH  046%=      5-min Rain = 0
KST3 090807Z 34003KT M03/M13 A3031 RMK A01 T10341131  RH  047%=      5-min Rain = 0
KST3 090808Z 34003KT M04/M13 A3031 RMK A01 T10351131  RH  047%=      5-min Rain = 0
KST3 090809Z 34004KT M04/M13 A3031 RMK A01 T10361130  RH  048%=      5-min Rain = 0
KST3 090810Z 34004KT M04/M13 A3031 RMK A01 T10371130  RH  048%=      5-min Rain = 0
KST3 090811Z 34004KT M04/M13 A3031 RMK A01 T10381131  RH  049%=      5-min Rain = 0
KST3 090812Z 34004KT M04/M13 A3031 RMK A01 T10391132  RH  048%=      5-min Rain = 0
KST3 090813Z 34003KT M04/M13 A3031 RMK A01 T10381132  RH  048%=      5-min Rain = 0
KST3 090814Z 34003KT M04/M13 A3031 RMK A01 T10381133  RH  048%=      5-min Rain = 0
KST3 090815Z 34003KT M04/M13 A3031 RMK A01 T10381133  RH  048%=      5-min Rain = 0
KST3 090816Z 34003KT M04/M13 A3031 RMK A01 T10381133  RH  048%=      5-min Rain = 0
KST3 090817Z 34003KT M04/M13 A3031 RMK A01 T10381133  RH  048%=      5-min Rain = 0
KST3 090818Z 34003KT M04/M13 A3031 RMK A01 T10381132  RH  048%=      5-min Rain = 0
KST3 090819Z 34003KT M04/M13 A3031 RMK A01 T10391131  RH  049%=      5-min Rain = 0
KST3 090820Z 34004KT M04/M13 A3031 RMK A01 T10401130  RH  050%=      5-min Rain = 0
KST3 090821Z 34004KT M04/M13 A3031 RMK A01 T10411130  RH  050%=      5-min Rain = 0
KST3 090822Z 34004KT M04/M13 A3031 RMK A01 T10421129  RH  051%=      5-min Rain = 0
KST3 090823Z 34004KT M04/M13 A3031 RMK A01 T10421128  RH  051%=      5-min Rain = 0
KST3 090824Z 34004KT M04/M13 A3031 RMK A01 T10431128  RH  051%=      5-min Rain = 0
KST3 090825Z 34004KT M04/M13 A3031 RMK A01 T10431129  RH  051%=      5-min Rain = 0
KST3 090826Z 33004KT M04/M13 A3031 RMK A01 T10431129  RH  051%=      5-min Rain = 0
KST3 090827Z 33004KT M04/M13 A3031 RMK A01 T10421129  RH  051%=      5-min Rain = 0
KST3 090828Z 33004KT M04/M13 A3031 RMK A01 T10421129  RH  051%=      5-min Rain = 0
KST3 090829Z 33004KT M04/M13 A3031 RMK A01 T10421129  RH  051%=      5-min Rain = 0
KST3 090830Z 33004KT M04/M13 A3031 RMK A01 T10411129  RH  051%=      5-min Rain = 0
KST3 090831Z 33004KT M04/M13 A3031 RMK A01 T10411128  RH  050%=      5-min Rain = 0
KST3 090832Z 33004KT M04/M13 A3031 RMK A01 T10401128  RH  050%=      5-min Rain = 0
KST3 090833Z 33004KT M04/M13 A3031 RMK A01 T10391129  RH  050%=      5-min Rain = 0
KST3 090834Z 33004KT M04/M13 A3031 RMK A01 T10381129  RH  049%=      5-min Rain = 0
KST3 090835Z 33004KT M04/M13 A3031 RMK A01 T10371129  RH  049%=      5-min Rain = 0
KST3 090836Z 33004KT M04/M13 A3031 RMK A01 T10371129  RH  049%=      5-min Rain = 0
KST3 090837Z 33004KT M04/M13 A3031 RMK A01 T10361130  RH  048%=      5-min Rain = 0
KST3 090838Z 33004KT M04/M13 A3031 RMK A01 T10361131  RH  048%=      5-min Rain = 0
KST3 090839Z 33004KT M04/M13 A3031 RMK A01 T10371131  RH  048%=      5-min Rain = 0
KST3 090840Z 32004KT M04/M13 A3031 RMK A01 T10371130  RH  049%=      5-min Rain = 0
KST3 090841Z 32004KT M04/M13 A3031 RMK A01 T10391128  RH  050%=      5-min Rain = 0
KST3 090842Z 32004KT M04/M13 A3031 RMK A01 T10401125  RH  052%=      5-min Rain = 0
KST3 090843Z 32005KT M04/M12 A3031 RMK A01 T10411123  RH  053%=      5-min Rain = 0
KST3 090844Z 33005KT M04/M12 A3031 RMK A01 T10431120  RH  055%=      5-min Rain = 0
KST3 090845Z 33004KT M05/M12 A3031 RMK A01 T10451118  RH  056%=      5-min Rain = 0
KST3 090846Z 33005KT M05/M12 A3031 RMK A01 T10461117  RH  058%=      5-min Rain = 0
KST3 090847Z 33005KT M05/M12 A3031 RMK A01 T10471116  RH  059%=      5-min Rain = 0
KST3 090848Z 33005KT M05/M12 A3031 RMK A01 T10481115  RH  059%=      5-min Rain = 0
KST3 090849Z 33005KT M05/M11 A3031 RMK A01 T10481114  RH  060%=      5-min Rain = 0
KST3 090850Z 33004KT M05/M11 A3031 RMK A01 T10491114  RH  060%=      5-min Rain = 0
KST3 090851Z 33005KT M05/M11 A3031 RMK A01 T10491114  RH  060%=      5-min Rain = 0
KST3 090852Z 33005KT M05/M11 A3031 RMK A01 T10491113  RH  061%=      5-min Rain = 0
KST3 090853Z 33005KT M05/M11 A3031 RMK A01 T10481112  RH  061%=      5-min Rain = 0
KST3 090854Z 33005KT M05/M11 A3031 RMK A01 T10501112  RH  062%=      5-min Rain = 0
KST3 090855Z 33005KT M05/M11 A3031 RMK A01 T10501112  RH  062%=      5-min Rain = 0
KST3 090856Z 32005KT M05/M11 A3031 RMK A01 T10501111  RH  062%=      5-min Rain = 0
KST3 090857Z 32005KT M05/M11 A3031 RMK A01 T10501111  RH  062%=      5-min Rain = 0
KST3 090858Z 32005KT M05/M11 A3031 RMK A01 T10501111  RH  062%=      5-min Rain = 0
KST3 090859Z 32004KT M05/M11 A303 RMK A01 T10491112  RH  061%=      5-min Rain = 0
KST3 090900Z 32005KT M05/M11 A303 RMK A01 T10481112  RH  061%=      5-min Rain = 0
KST3 090901Z 32004KT M05/M11 A303 RMK A01 T10481111  RH  061%=      5-min Rain = 0
KST3 090902Z 32005KT M05/M11 A3031 RMK A01 T10491110  RH  062%=      5-min Rain = 0
KST3 090903Z 32005KT M05/M11 A3031 RMK A01 T10501109  RH  063%=      5-min Rain = 0
KST3 090904Z 32005KT M05/M11 A3031 RMK A01 T10511108  RH  064%=      5-min Rain = 0
KST3 090905Z 32005KT M05/M11 A3031 RMK A01 T10511107  RH  065%=      5-min Rain = 0
KST3 090906Z 32005KT M05/M11 A3031 RMK A01 T10521107  RH  065%=      5-min Rain = 0
KST3 090907Z 32005KT M05/M11 A3031 RMK A01 T10531107  RH  066%=      5-min Rain = 0
KST3 090908Z 32005KT M06/M11 A3031 RMK A01 T10551106  RH  067%=      5-min Rain = 0
KST3 090909Z 32005KT M05/M11 A3031 RMK A01 T10541106  RH  067%=      5-min Rain = 0
KST3 090910Z 32005KT M05/M11 A3031 RMK A01 T10511106  RH  066%=      5-min Rain = 0
KST3 090911Z 32005KT M05/M11 A3031 RMK A01 T10501105  RH  065%=      5-min Rain = 0
KST3 090912Z 32005KT M05/M11 A303 RMK A01 T10491105  RH  065%=      5-min Rain = 0
KST3 090913Z 32006KT M05/M10 A303 RMK A01 T10491104  RH  065%=      5-min Rain = 0
KST3 090914Z 32006KT M05/M10 A303 RMK A01 T10491104  RH  065%=      5-min Rain = 0
KST3 090915Z 32006KT M05/M10 A303 RMK A01 T10491104  RH  065%=      5-min Rain = 0
KST3 090916Z 32006KT M05/M10 A303 RMK A01 T10491103  RH  066%=      5-min Rain = 0
KST3 090917Z 32006KT M05/M10 A303 RMK A01 T10481102  RH  066%=      5-min Rain = 0
KST3 090918Z 32006KT M05/M10 A303 RMK A01 T10481102  RH  066%=      5-min Rain = 0
KST3 090919Z 32006KT M05/M10 A303 RMK A01 T10481102  RH  065%=      5-min Rain = 0
KST3 090920Z 32006KT M05/M10 A303 RMK A01 T10471102  RH  066%=      5-min Rain = 0
KST3 090921Z 32006KT M05/M10 A303 RMK A01 T10471100  RH  067%=      5-min Rain = 0
KST3 090922Z 32006KT M05/M10 A303 RMK A01 T10481098  RH  068%=      5-min Rain = 0
KST3 090923Z 32006KT M05/M10 A303 RMK A01 T10491098  RH  069%=      5-min Rain = 0
KST3 090924Z 32006KT M05/M10 A303 RMK A01 T10491098  RH  069%=      5-min Rain = 0
KST3 090925Z 32006KT M05/M10 A303 RMK A01 T10491097  RH  069%=      5-min Rain = 0
KST3 090926Z 32006KT M05/M10 A303 RMK A01 T10501098  RH  069%=      5-min Rain = 0
KST3 090927Z 32007KT M05/M10 A303 RMK A01 T10501098  RH  069%=      5-min Rain = 0
KST3 090928Z 32007KT M05/M10 A303 RMK A01 T10501097  RH  070%=      5-min Rain = 0
KST3 090929Z 32007KT M05/M10 A303 RMK A01 T10501095  RH  071%=      5-min Rain = 0
KST3 090930Z 32007KT M05/M10 A303 RMK A01 T10511095  RH  071%=      5-min Rain = 0
KST3 090931Z 32007KT M05/M10 A303 RMK A01 T10521095  RH  072%=      5-min Rain = 0
KST3 090932Z 32007KT M05/M09 A303 RMK A01 T10521094  RH  072%=      5-min Rain = 0
KST3 090933Z 32007KT M05/M09 A303 RMK A01 T10521093  RH  073%=      5-min Rain = 0
KST3 090934Z 32007KT M05/M09 A303 RMK A01 T10521092  RH  073%=      5-min Rain = 0
KST3 090935Z 32007KT M05/M09 A303 RMK A01 T10521091  RH  074%=      5-min Rain = 0
KST3 090936Z 32007KT M05/M09 A303 RMK A01 T10521091  RH  074%=      5-min Rain = 0
KST3 090937Z 32007KT M05/M09 A303 RMK A01 T10531091  RH  074%=      5-min Rain = 0
KST3 090938Z 31008KT M05/M09 A303 RMK A01 T10531091  RH  075%=      5-min Rain = 0
KST3 090939Z 31008KT M05/M09 A303 RMK A01 T10531090  RH  075%=      5-min Rain = 0
KST3 090940Z 31008KT M05/M09 A303 RMK A01 T10521090  RH  075%=      5-min Rain = 0
KST3 090941Z 31009KT M05/M09 A303 RMK A01 T10521090  RH  075%=      5-min Rain = 0
KST3 090942Z 31009KT M05/M09 A303 RMK A01 T10521089  RH  075%=      5-min Rain = 0
KST3 090943Z 32009KT M05/M09 A303 RMK A01 T10521087  RH  076%=      5-min Rain = 0
KST3 090944Z 32009KT M05/M09 A303 RMK A01 T10521087  RH  076%=      5-min Rain = 0
KST3 090945Z 32010KT M05/M09 A303 RMK A01 T10531087  RH  077%=      5-min Rain = 0
KST3 090946Z 32009KT M05/M09 A303 RMK A01 T10541088  RH  077%=      5-min Rain = 0
KST3 090947Z 32009KT M05/M09 A3031 RMK A01 T10541088  RH  077%=      5-min Rain = 0
KST3 090948Z 32009KT M06/M09 A3031 RMK A01 T10551088  RH  077%=      5-min Rain = 0
KST3 090949Z 32009KT M06/M09 A3031 RMK A01 T10551088  RH  078%=      5-min Rain = 0
KST3 090950Z 32009KT M06/M09 A3031 RMK A01 T10561089  RH  078%=      5-min Rain = 0
KST3 090951Z 32008KT M06/M09 A3031 RMK A01 T10561089  RH  078%=      5-min Rain = 0
KST3 090952Z 32008KT M06/M09 A3031 RMK A01 T10551089  RH  077%=      5-min Rain = 0
KST3 090953Z 32008KT M06/M09 A3031 RMK A01 T10561089  RH  077%=      5-min Rain = 0
KST3 090954Z 32008KT M06/M09 A3031 RMK A01 T10551089  RH  077%=      5-min Rain = 0
KST3 090955Z 32008KT M06/M09 A3031 RMK A01 T10551090  RH  076%=      5-min Rain = 0
KST3 090956Z 32008KT M05/M09 A3031 RMK A01 T10541089  RH  076%=      5-min Rain = 0
KST3 090957Z 32009KT M05/M09 A3031 RMK A01 T10521089  RH  076%=      5-min Rain = 0
KST3 090958Z 31009KT M05/M09 A3031 RMK A01 T10511089  RH  075%=      5-min Rain = 0
KST3 090959Z 31009KT M05/M09 A3031 RMK A01 T10511090  RH  074%=      5-min Rain = 0
KST3 091000Z 31009KT M05/M09 A3031 RMK A01 T10511090  RH  074%=      5-min Rain = 0
KST3 091001Z 31009KT M05/M09 A3031 RMK A01 T10501090  RH  074%=      5-min Rain = 0
KST3 091002Z 31010KT M05/M09 A3031 RMK A01 T10501089  RH  074%=      5-min Rain = 0
KST3 091003Z 31010KT M05/M09 A3031 RMK A01 T10501089  RH  074%=      5-min Rain = 0
KST3 091004Z 31009KT M05/M09 A3031 RMK A01 T10501089  RH  074%=      5-min Rain = 0
KST3 091005Z 31009KT M05/M09 A3031 RMK A01 T10501089  RH  074%=      5-min Rain = 0
KST3 091006Z 31009KT M05/M09 A3031 RMK A01 T10521091  RH  074%=      5-min Rain = 0
KST3 091007Z 32009KT M05/M09 A3031 RMK A01 T10541091  RH  075%=      5-min Rain = 0
KST3 091008Z 32009KT M06/M09 A3031 RMK A01 T10561092  RH  076%=      5-min Rain = 0
KST3 091009Z 32009KT M06/M09 A3031 RMK A01 T10561091  RH  076%=      5-min Rain = 0
KST3 091010Z 32009KT M06/M09 A3031 RMK A01 T10561090  RH  077%=      5-min Rain = 0
KST3 091011Z 32009KT M06/M09 A3031 RMK A01 T10571091  RH  077%=      5-min Rain = 0
KST3 091012Z 32009KT M06/M09 A3031 RMK A01 T10571091  RH  077%=      5-min Rain = 0
KST3 091013Z 32010KT M06/M09 A3031 RMK A01 T10571091  RH  077%=      5-min Rain = 0
KST3 091014Z 32010KT M06/M09 A3031 RMK A01 T10561091  RH  077%=      5-min Rain = 0
KST3 091015Z 32010KT M06/M09 A3031 RMK A01 T10571091  RH  077%=      5-min Rain = 0
KST3 091016Z 32010KT M06/M09 A3031 RMK A01 T10571091  RH  077%=      5-min Rain = 0
KST3 091017Z 32010KT M06/M09 A3031 RMK A01 T10581092  RH  077%=      5-min Rain = 0
KST3 091018Z 32010KT M06/M09 A3031 RMK A01 T10581091  RH  077%=      5-min Rain = 0
KST3 091019Z 32010KT M06/M09 A3031 RMK A01 T10571091  RH  077%=      5-min Rain = 0
KST3 091020Z 32010KT M06/M09 A3031 RMK A01 T10571091  RH  077%=      5-min Rain = 0
KST3 091021Z 32009KT M06/M09 A3031 RMK A01 T10571091  RH  077%=      5-min Rain = 0
KST3 091022Z 32009KT M06/M09 A3031 RMK A01 T10581092  RH  077%=      5-min Rain = 0
KST3 091023Z 32009KT M06/M09 A3031 RMK A01 T10581091  RH  078%=      5-min Rain = 0
KST3 091024Z 32009KT M06/M09 A3031 RMK A01 T10591092  RH  078%=      5-min Rain = 0
KST3 091025Z 31009KT M06/M09 A3031 RMK A01 T10591091  RH  078%=      5-min Rain = 0
KST3 091026Z 31009KT M06/M09 A3031 RMK A01 T10591091  RH  078%=      5-min Rain = 0
KST3 091027Z 31009KT M06/M09 A3031 RMK A01 T10591091  RH  078%=      5-min Rain = 0
KST3 091028Z 30009KT M06/M09 A3031 RMK A01 T10591091  RH  078%=      5-min Rain = 0
KST3 091029Z 30009KT M06/M09 A3031 RMK A01 T10611092  RH  078%=      5-min Rain = 0
KST3 091030Z 30009KT M06/M09 A3031 RMK A01 T10621092  RH  079%=      5-min Rain = 0
KST3 091031Z 30009KT M06/M09 A3031 RMK A01 T10621091  RH  080%=      5-min Rain = 0
KST3 091032Z 30009KT M06/M09 A3031 RMK A01 T10621091  RH  080%=      5-min Rain = 0
KST3 091033Z 30010KT M06/M09 A3031 RMK A01 T10631092  RH  080%=      5-min Rain = 0
KST3 091034Z 31010KT M06/M09 A3031 RMK A01 T10641092  RH  081%=      5-min Rain = 0
KST3 091035Z 31010KT M06/M09 A3031 RMK A01 T10631090  RH  081%=      5-min Rain = 0
KST3 091036Z 31010KT M06/M09 A3031 RMK A01 T10611089  RH  081%=      5-min Rain = 0
KST3 091037Z 30010KT M06/M09 A3031 RMK A01 T10601088  RH  080%=      5-min Rain = 0
KST3 091038Z 30010KT M06/M09 A3031 RMK A01 T10591089  RH  080%=      5-min Rain = 0
KST3 091039Z 31010KT M06/M09 A3031 RMK A01 T10601089  RH  079%=      5-min Rain = 0
KST3 091040Z 31010KT M06/M09 A3031 RMK A01 T10601089  RH  080%=      5-min Rain = 0
KST3 091041Z 30009KT M06/M09 A3031 RMK A01 T10601089  RH  080%=      5-min Rain = 0
KST3 091042Z 31009KT M06/M09 A3031 RMK A01 T10601089  RH  079%=      5-min Rain = 0
KST3 091043Z 31010KT M06/M09 A3031 RMK A01 T10591089  RH  080%=      5-min Rain = 0
KST3 091044Z 31010KT M06/M09 A3031 RMK A01 T10601089  RH  080%=      5-min Rain = 0
KST3 091045Z 30009KT M06/M09 A3031 RMK A01 T10601089  RH  080%=      5-min Rain = 0
KST3 091046Z 31009KT M06/M09 A3031 RMK A01 T10601089  RH  080%=      5-min Rain = 0
KST3 091047Z 30009KT M06/M09 A3031 RMK A01 T10611090  RH  080%=      5-min Rain = 0
KST3 091048Z 31009KT M06/M09 A3031 RMK A01 T10601089  RH  080%=      5-min Rain = 0
KST3 091049Z 31009KT M06/M09 A3031 RMK A01 T10601089  RH  080%=      5-min Rain = 0
KST3 091050Z 31009KT M06/M09 A3031 RMK A01 T10611089  RH  080%=      5-min Rain = 0
KST3 091051Z 31009KT M06/M09 A3031 RMK A01 T10611090  RH  080%=      5-min Rain = 0
KST3 091052Z 31010KT M06/M09 A3031 RMK A01 T10621090  RH  080%=      5-min Rain = 0
KST3 091053Z 32011KT M06/M09 A3031 RMK A01 T10621089  RH  081%=      5-min Rain = 0
KST3 091054Z 32011KT M06/M09 A3031 RMK A01 T10611089  RH  081%=      5-min Rain = 0
KST3 091055Z 31010KT M06/M09 A303 RMK A01 T10601088  RH  081%=      5-min Rain = 0
KST3 091056Z 32011KT M06/M09 A303 RMK A01 T10601088  RH  080%=      5-min Rain = 0
KST3 091057Z 32011KT M06/M09 A303 RMK A01 T10601088  RH  080%=      5-min Rain = 0
KST3 091058Z 32011KT M06/M09 A303 RMK A01 T10591088  RH  080%=      5-min Rain = 0
KST3 091059Z 32011KT M06/M09 A303 RMK A01 T10591088  RH  080%=      5-min Rain = 0
KST3 091100Z 31011KT M06/M09 A303 RMK A01 T10591088  RH  080%=      5-min Rain = 0
KST3 091101Z 32011KT M06/M09 A303 RMK A01 T10591088  RH  080%=      5-min Rain = 0
KST3 091102Z 32011KT M06/M09 A303 RMK A01 T10591089  RH  079%=      5-min Rain = 0
KST3 091103Z 31011KT M06/M09 A303 RMK A01 T10591089  RH  079%=      5-min Rain = 0
KST3 091104Z 32011KT M06/M09 A303 RMK A01 T10591089  RH  079%=      5-min Rain = 0
KST3 091105Z 32011KT M06/M09 A303 RMK A01 T10591089  RH  079%=      5-min Rain = 0
KST3 091106Z 32011KT M06/M09 A303 RMK A01 T10591089  RH  079%=      5-min Rain = 0
KST3 091107Z 31011KT M06/M09 A303 RMK A01 T10581088  RH  079%=      5-min Rain = 0
KST3 091108Z 31012KT M06/M09 A303 RMK A01 T10571087  RH  079%=      5-min Rain = 0
KST3 091109Z 32011KT M06/M09 A303 RMK A01 T10561087  RH  079%=      5-min Rain = 0
KST3 091110Z 31011KT M06/M09 A303 RMK A01 T10561086  RH  079%=      5-min Rain = 0
KST3 091111Z 31011KT M06/M09 A303 RMK A01 T10551087  RH  078%=      5-min Rain = 0
KST3 091112Z 32011KT M06/M09 A303 RMK A01 T10551087  RH  078%=      5-min Rain = 0
KST3 091113Z 31011KT M06/M09 A303 RMK A01 T10551087  RH  079%=      5-min Rain = 0
KST3 091114Z 32011KT M06/M09 A303 RMK A01 T10561087  RH  079%=      5-min Rain = 0
KST3 091115Z 32011KT M06/M09 A303 RMK A01 T10561087  RH  079%=      5-min Rain = 0
KST3 091116Z 32011KT M06/M09 A303 RMK A01 T10561088  RH  079%=      5-min Rain = 0
KST3 091117Z 32011KT M06/M09 A303 RMK A01 T10571088  RH  079%=      5-min Rain = 0
KST3 091118Z 31011KT M06/M09 A303 RMK A01 T10571088  RH  079%=      5-min Rain = 0
KST3 091119Z 32011KT M06/M09 A303 RMK A01 T10571088  RH  079%=      5-min Rain = 0
KST3 091120Z 32011KT M06/M09 A303 RMK A01 T10581088  RH  079%=      5-min Rain = 0
KST3 091121Z 32010KT M06/M09 A303 RMK A01 T10571088  RH  079%=      5-min Rain = 0
KST3 091122Z 31010KT M06/M09 A303 RMK A01 T10571088  RH  079%=      5-min Rain = 0
KST3 091123Z 31010KT M06/M09 A303 RMK A01 T10581089  RH  079%=      5-min Rain = 0
KST3 091124Z 32010KT M06/M09 A303 RMK A01 T10581089  RH  079%=      5-min Rain = 0
KST3 091125Z 32010KT M06/M09 A303 RMK A01 T10581088  RH  079%=      5-min Rain = 0
KST3 091126Z 31010KT M06/M09 A303 RMK A01 T10581088  RH  079%=      5-min Rain = 0
KST3 091127Z 31010KT M06/M09 A303 RMK A01 T10591089  RH  079%=      5-min Rain = 0
KST3 091128Z 32010KT M06/M09 A303 RMK A01 T10591089  RH  079%=      5-min Rain = 0
KST3 091129Z 31011KT M06/M09 A303 RMK A01 T10601089  RH  079%=      5-min Rain = 0
KST3 091130Z 31011KT M06/M09 A303 RMK A01 T10601089  RH  080%=      5-min Rain = 0
KST3 091131Z 31011KT M06/M09 A303 RMK A01 T10601089  RH  080%=      5-min Rain = 0
KST3 091132Z 31011KT M06/M09 A303 RMK A01 T10591089  RH  080%=      5-min Rain = 0
KST3 091133Z 32011KT M06/M09 A303 RMK A01 T10591089  RH  080%=      5-min Rain = 0
KST3 091134Z 32011KT M06/M09 A303 RMK A01 T10591089  RH  079%=      5-min Rain = 0
KST3 091135Z 32011KT M06/M09 A303 RMK A01 T10591089  RH  079%=      5-min Rain = 0
KST3 091136Z 32010KT M06/M09 A303 RMK A01 T10601090  RH  079%=      5-min Rain = 0
KST3 091137Z 32010KT M06/M09 A303 RMK A01 T10611090  RH  079%=      5-min Rain = 0
KST3 091138Z 32011KT M06/M09 A303 RMK A01 T10601090  RH  080%=      5-min Rain = 0
KST3 091139Z 32011KT M06/M09 A303 RMK A01 T10601089  RH  080%=      5-min Rain = 0
KST3 091140Z 32011KT M06/M09 A303 RMK A01 T10591088  RH  080%=      5-min Rain = 0
KST3 091141Z 31011KT M06/M09 A303 RMK A01 T10581087  RH  080%=      5-min Rain = 0
KST3 091142Z 31011KT M06/M09 A303 RMK A01 T10571087  RH  079%=      5-min Rain = 0
KST3 091143Z 31011KT M06/M09 A303 RMK A01 T10571087  RH  079%=      5-min Rain = 0
KST3 091144Z 32011KT M06/M09 A303 RMK A01 T10561087  RH  079%=      5-min Rain = 0
KST3 091145Z 32011KT M06/M09 A303 RMK A01 T10561087  RH  079%=      5-min Rain = 0
KST3 091146Z 31011KT M06/M09 A3031 RMK A01 T10561088  RH  078%=      5-min Rain = 0
KST3 091147Z 32011KT M06/M09 A3031 RMK A01 T10571089  RH  078%=      5-min Rain = 0
KST3 091148Z 31011KT M06/M09 A3031 RMK A01 T10581090  RH  078%=      5-min Rain = 0
KST3 091149Z 31011KT M06/M09 A3031 RMK A01 T10591090  RH  079%=      5-min Rain = 0
KST3 091150Z 31011KT M06/M09 A3031 RMK A01 T10591089  RH  079%=      5-min Rain = 0
KST3 091151Z 31011KT M06/M09 A3031 RMK A01 T10591089  RH  079%=      5-min Rain = 0
KST3 091152Z 32010KT M06/M09 A3031 RMK A01 T10591089  RH  079%=      5-min Rain = 0
KST3 091153Z 32010KT M06/M09 A3031 RMK A01 T10591089  RH  079%=      5-min Rain = 0
KST3 091154Z 32010KT M06/M09 A3031 RMK A01 T10591089  RH  079%=      5-min Rain = 0
KST3 091155Z 32010KT M06/M09 A3031 RMK A01 T10601090  RH  079%=      5-min Rain = 0
KST3 091156Z 32010KT M06/M09 A3031 RMK A01 T10611091  RH  080%=      5-min Rain = 0
KST3 091157Z 32010KT M06/M09 A3031 RMK A01 T10611090  RH  080%=      5-min Rain = 0
KST3 091158Z 32010KT M06/M09 A3031 RMK A01 T10621090  RH  080%=      5-min Rain = 0
KST3 091159Z 32011KT M06/M09 A3031 RMK A01 T10601088  RH  081%=      5-min Rain = 0
KST3 091200Z 32011KT M06/M09 A3031 RMK A01 T10581087  RH  080%=      5-min Rain = 0
KST3 091201Z 32012KT M06/M09 A3031 RMK A01 T10571086  RH  080%=      5-min Rain = 0
KST3 091202Z 32011KT M06/M09 A3031 RMK A01 T10571087  RH  079%=      5-min Rain = 0
KST3 091203Z 31011KT M06/M09 A3031 RMK A01 T10571087  RH  079%=      5-min Rain = 0
KST3 091204Z 32011KT M06/M09 A3031 RMK A01 T10571088  RH  079%=      5-min Rain = 0
KST3 091205Z 32011KT M06/M09 A3031 RMK A01 T10581088  RH  079%=      5-min Rain = 0
KST3 091206Z 32011KT M06/M09 A3031 RMK A01 T10581088  RH  079%=      5-min Rain = 0
KST3 091207Z 32010KT M06/M09 A3031 RMK A01 T10581088  RH  079%=      5-min Rain = 0
KST3 091208Z 32010KT M06/M09 A3031 RMK A01 T10581088  RH  079%=      5-min Rain = 0
KST3 091209Z 32010KT M06/M09 A3031 RMK A01 T10591088  RH  080%=      5-min Rain = 0
KST3 091210Z 32010KT M06/M09 A3031 RMK A01 T10601089  RH  080%=      5-min Rain = 0
KST3 091211Z 32011KT M06/M09 A3031 RMK A01 T10601089  RH  080%=      5-min Rain = 0
KST3 091212Z 31011KT M06/M09 A3031 RMK A01 T10601088  RH  080%=      5-min Rain = 0
KST3 091213Z 31011KT M06/M09 A3031 RMK A01 T10601088  RH  080%=      5-min Rain = 0
KST3 091214Z 31011KT M06/M09 A3031 RMK A01 T10601089  RH  080%=      5-min Rain = 0
KST3 091215Z 31011KT M06/M09 A3031 RMK A01 T10601089  RH  080%=      5-min Rain = 0
KST3 091216Z 31010KT M06/M09 A3032 RMK A01 T10601089  RH  080%=      5-min Rain = 0
KST3 091217Z 31010KT M06/M09 A3032 RMK A01 T10591089  RH  080%=      5-min Rain = 0
KST3 091218Z 31010KT M06/M09 A3031 RMK A01 T10601089  RH  080%=      5-min Rain = 0
KST3 091219Z 32010KT M06/M09 A3032 RMK A01 T10611090  RH  080%=      5-min Rain = 0
KST3 091220Z 32010KT M06/M09 A3032 RMK A01 T10611090  RH  080%=      5-min Rain = 0
KST3 091221Z 31010KT M06/M09 A3032 RMK A01 T10611090  RH  080%=      5-min Rain = 0
KST3 091222Z 31011KT M06/M09 A3032 RMK A01 T10611090  RH  080%=      5-min Rain = 0
KST3 091223Z 31011KT M06/M09 A3032 RMK A01 T10611090  RH  080%=      5-min Rain = 0
KST3 091224Z 31011KT M06/M09 A3032 RMK A01 T10611090  RH  080%=      5-min Rain = 0
KST3 091225Z 31010KT M06/M09 A3032 RMK A01 T10611090  RH  080%=      5-min Rain = 0
KST3 091226Z 31011KT M06/M09 A3032 RMK A01 T10621091  RH  080%=      5-min Rain = 0
KST3 091227Z 31011KT M06/M09 A3032 RMK A01 T10621091  RH  080%=      5-min Rain = 0
KST3 091228Z 31011KT M06/M09 A3032 RMK A01 T10631091  RH  080%=      5-min Rain = 0
KST3 091229Z 30010KT M06/M09 A3032 RMK A01 T10631091  RH  080%=      5-min Rain = 0
KST3 091230Z 30010KT M06/M09 A3032 RMK A01 T10631091  RH  081%=      5-min Rain = 0
KST3 091231Z 30010KT M06/M09 A3032 RMK A01 T10631090  RH  081%=      5-min Rain = 0
KST3 091232Z 30010KT M06/M09 A3032 RMK A01 T10631091  RH  081%=      5-min Rain = 0
KST3 091233Z 30009KT M06/M09 A3032 RMK A01 T10631091  RH  081%=      5-min Rain = 0
KST3 091234Z 30010KT M07/M09 A3032 RMK A01 T10651092  RH  081%=      5-min Rain = 0
KST3 091235Z 30010KT M07/M09 A3032 RMK A01 T10661093  RH  081%=      5-min Rain = 0
KST3 091236Z 30010KT M07/M09 A3032 RMK A01 T10661092  RH  082%=      5-min Rain = 0
KST3 091237Z 31010KT M07/M09 A3032 RMK A01 T10651091  RH  082%=      5-min Rain = 0
KST3 091238Z 31010KT M06/M09 A3032 RMK A01 T10641090  RH  082%=      5-min Rain = 0
KST3 091239Z 31011KT M06/M09 A3032 RMK A01 T10631089  RH  082%=      5-min Rain = 0
KST3 091240Z 31011KT M06/M09 A3032 RMK A01 T10621089  RH  081%=      5-min Rain = 0
KST3 091241Z 31011KT M06/M09 A3032 RMK A01 T10611089  RH  081%=      5-min Rain = 0
KST3 091242Z 31011KT M06/M09 A3032 RMK A01 T10611090  RH  080%=      5-min Rain = 0
KST3 091243Z 31012KT M06/M09 A3032 RMK A01 T10611090  RH  080%=      5-min Rain = 0
KST3 091244Z 31012KT M06/M09 A3032 RMK A01 T10611090  RH  080%=      5-min Rain = 0
KST3 091245Z 31011KT M06/M09 A3032 RMK A01 T10611089  RH  080%=      5-min Rain = 0
KST3 091246Z 31011KT M06/M09 A3032 RMK A01 T10611089  RH  080%=      5-min Rain = 0
KST3 091247Z 31011KT M06/M09 A3032 RMK A01 T10611090  RH  080%=      5-min Rain = 0
KST3 091248Z 31011KT M06/M09 A3032 RMK A01 T10611090  RH  080%=      5-min Rain = 0
KST3 091249Z 31011KT M06/M09 A3032 RMK A01 T10611090  RH  080%=      5-min Rain = 0
KST3 091250Z 31011KT M06/M09 A3032 RMK A01 T10611090  RH  080%=      5-min Rain = 0
KST3 091251Z 31011KT M06/M09 A3032 RMK A01 T10611090  RH  080%=      5-min Rain = 0
KST3 091252Z 31012KT M06/M09 A3032 RMK A01 T10611090  RH  080%=      5-min Rain = 0
KST3 091253Z 31011KT M06/M09 A3032 RMK A01 T10611090  RH  080%=      5-min Rain = 0
KST3 091254Z 31012KT M06/M09 A3032 RMK A01 T10601089  RH  080%=      5-min Rain = 0
KST3 091255Z 31012KT M06/M09 A3032 RMK A01 T10601089  RH  080%=      5-min Rain = 0
KST3 091256Z 31011KT M06/M09 A3032 RMK A01 T10601089  RH  080%=      5-min Rain = 0
KST3 091257Z 31012KT M06/M09 A3032 RMK A01 T10591088  RH  080%=      5-min Rain = 0
KST3 091258Z 31012KT M06/M09 A3032 RMK A01 T10581088  RH  080%=      5-min Rain = 0
KST3 091259Z 31012KT M06/M09 A3032 RMK A01 T10571087  RH  079%=      5-min Rain = 0
KST3 091300Z 31012KT M06/M09 A3032 RMK A01 T10561086  RH  079%=      5-min Rain = 0
KST3 091301Z 31012KT M06/M09 A3032 RMK A01 T10561086  RH  079%=      5-min Rain = 0
KST3 091302Z 31012KT M05/M09 A3032 RMK A01 T10541086  RH  079%=      5-min Rain = 0
KST3 091303Z 31012KT M05/M09 A3032 RMK A01 T10531085  RH  078%=      5-min Rain = 0
KST3 091304Z 31012KT M05/M09 A3032 RMK A01 T10521085  RH  078%=      5-min Rain = 0
KST3 091305Z 31012KT M05/M08 A3032 RMK A01 T10511084  RH  077%=      5-min Rain = 0
KST3 091306Z 31012KT M05/M09 A3032 RMK A01 T10511085  RH  077%=      5-min Rain = 0
KST3 091307Z 31012KT M05/M09 A3032 RMK A01 T10501085  RH  077%=      5-min Rain = 0
KST3 091308Z 31012KT M05/M08 A3032 RMK A01 T10501084  RH  077%=      5-min Rain = 0
KST3 091309Z 31013KT M05/M09 A3032 RMK A01 T10491085  RH  076%=      5-min Rain = 0
KST3 091310Z 31013KT M05/M09 A3032 RMK A01 T10501085  RH  076%=      5-min Rain = 0
KST3 091311Z 31013KT M05/M09 A3032 RMK A01 T10501086  RH  076%=      5-min Rain = 0
KST3 091312Z 31013KT M05/M09 A3032 RMK A01 T10511086  RH  076%=      5-min Rain = 0
KST3 091313Z 31012KT M05/M09 A3032 RMK A01 T10501086  RH  076%=      5-min Rain = 0
KST3 091314Z 31012KT M05/M09 A3032 RMK A01 T10501086  RH  076%=      5-min Rain = 0
KST3 091315Z 31012KT M05/M09 A3033 RMK A01 T10511086  RH  076%=      5-min Rain = 0
KST3 091316Z 30012KT M05/M09 A3033 RMK A01 T10511087  RH  076%=      5-min Rain = 0
KST3 091317Z 30012KT M05/M09 A3033 RMK A01 T10511087  RH  076%=      5-min Rain = 0
KST3 091318Z 30013KT M05/M09 A3033 RMK A01 T10511087  RH  076%=      5-min Rain = 0
KST3 091319Z 30013KT M05/M09 A3033 RMK A01 T10531088  RH  076%=      5-min Rain = 0
KST3 091320Z 31012KT M05/M09 A3033 RMK A01 T10541088  RH  077%=      5-min Rain = 0
KST3 091321Z 30012KT M05/M09 A3033 RMK A01 T10541088  RH  077%=      5-min Rain = 0
KST3 091322Z 30012KT M05/M09 A3033 RMK A01 T10531088  RH  077%=      5-min Rain = 0
KST3 091323Z 30011KT M06/M09 A3033 RMK A01 T10551089  RH  077%=      5-min Rain = 0
KST3 091324Z 30012KT M06/M09 A3033 RMK A01 T10561090  RH  077%=      5-min Rain = 0
KST3 091325Z 30012KT M06/M09 A3033 RMK A01 T10561089  RH  078%=      5-min Rain = 0
KST3 091326Z 30012KT M06/M09 A3033 RMK A01 T10571089  RH  078%=      5-min Rain = 0
KST3 091327Z 30012KT M06/M09 A3033 RMK A01 T10571089  RH  078%=      5-min Rain = 0
KST3 091328Z 30012KT M06/M09 A3033 RMK A01 T10581089  RH  079%=      5-min Rain = 0
KST3 091329Z 30012KT M06/M09 A3033 RMK A01 T10561087  RH  079%=      5-min Rain = 0
KST3 091330Z 30011KT M06/M09 A3033 RMK A01 T10551085  RH  079%=      5-min Rain = 0
KST3 091331Z 30011KT M05/M09 A3033 RMK A01 T10541085  RH  079%=      5-min Rain = 0
KST3 091332Z 30011KT M05/M09 A3033 RMK A01 T10531085  RH  078%=      5-min Rain = 0
KST3 091333Z 30012KT M05/M09 A3033 RMK A01 T10521085  RH  078%=      5-min Rain = 0
KST3 091334Z 30012KT M05/M09 A3033 RMK A01 T10531085  RH  078%=      5-min Rain = 0
KST3 091335Z 30012KT M05/M09 A3033 RMK A01 T10531086  RH  078%=      5-min Rain = 0
KST3 091336Z 30012KT M05/M09 A3033 RMK A01 T10531086  RH  078%=      5-min Rain = 0
KST3 091337Z 30012KT M05/M09 A3033 RMK A01 T10531086  RH  078%=      5-min Rain = 0
KST3 091338Z 30011KT M05/M09 A3033 RMK A01 T10531086  RH  078%=      5-min Rain = 0
KST3 091339Z 30012KT M05/M09 A3033 RMK A01 T10541087  RH  078%=      5-min Rain = 0
KST3 091340Z 30012KT M06/M09 A3033 RMK A01 T10551087  RH  078%=      5-min Rain = 0
KST3 091341Z 30012KT M05/M09 A3033 RMK A01 T10541086  RH  078%=      5-min Rain = 0
KST3 091342Z 30012KT M05/M09 A3033 RMK A01 T10521085  RH  078%=      5-min Rain = 0
KST3 091343Z 30012KT M05/M09 A3033 RMK A01 T10521085  RH  077%=      5-min Rain = 0
KST3 091344Z 30012KT M05/M09 A3033 RMK A01 T10521086  RH  077%=      5-min Rain = 0
KST3 091345Z 30012KT M05/M09 A3033 RMK A01 T10521086  RH  077%=      5-min Rain = 0
KST3 091346Z 30012KT M05/M09 A3033 RMK A01 T10521086  RH  077%=      5-min Rain = 0
KST3 091347Z 30012KT M05/M09 A3033 RMK A01 T10511085  RH  077%=      5-min Rain = 0
KST3 091348Z 30012KT M05/M08 A3033 RMK A01 T10501084  RH  077%=      5-min Rain = 0
KST3 091349Z 30011KT M05/M08 A3033 RMK A01 T10491084  RH  077%=      5-min Rain = 0
KST3 091350Z 30011KT M05/M08 A3033 RMK A01 T10471083  RH  076%=      5-min Rain = 0
KST3 091351Z 30011KT M05/M09 A3033 RMK A01 T10481085  RH  076%=      5-min Rain = 0
KST3 091352Z 30010KT M05/M09 A3033 RMK A01 T10501086  RH  076%=      5-min Rain = 0
KST3 091353Z 30010KT M05/M09 A3033 RMK A01 T10531089  RH  076%=      5-min Rain = 0
KST3 091354Z 30011KT M06/M09 A3033 RMK A01 T10551089  RH  077%=      5-min Rain = 0
KST3 091355Z 30011KT M06/M09 A3033 RMK A01 T10571089  RH  078%=      5-min Rain = 0
KST3 091356Z 30011KT M06/M09 A3033 RMK A01 T10571088  RH  079%=      5-min Rain = 0
KST3 091357Z 30011KT M06/M09 A3033 RMK A01 T10571087  RH  079%=      5-min Rain = 0
KST3 091358Z 30011KT M06/M09 A3033 RMK A01 T10561087  RH  079%=      5-min Rain = 0
KST3 091359Z 30011KT M06/M09 A3033 RMK A01 T10551085  RH  079%=      5-min Rain = 0
KST3 091400Z 30011KT M06/M09 A3033 RMK A01 T10551085  RH  079%=      5-min Rain = 0
KST3 091401Z 30011KT M05/M09 A3033 RMK A01 T10541085  RH  079%=      5-min Rain = 0
KST3 091402Z 30010KT M05/M09 A3033 RMK A01 T10541085  RH  079%=      5-min Rain = 0
KST3 091403Z 30011KT M05/M09 A3033 RMK A01 T10541085  RH  079%=      5-min Rain = 0
KST3 091404Z 30010KT M05/M09 A3033 RMK A01 T10541085  RH  079%=      5-min Rain = 0
KST3 091405Z 30010KT M05/M08 A3033 RMK A01 T10521084  RH  079%=      5-min Rain = 0
KST3 091406Z 30010KT M05/M08 A3033 RMK A01 T10521083  RH  079%=      5-min Rain = 0
KST3 091407Z 30010KT M05/M08 A3033 RMK A01 T10521084  RH  078%=      5-min Rain = 0
KST3 091408Z 30010KT M05/M08 A3033 RMK A01 T10521084  RH  078%=      5-min Rain = 0
KST3 091409Z 30010KT M05/M08 A3034 RMK A01 T10521083  RH  078%=      5-min Rain = 0
KST3 091410Z 30010KT M05/M08 A3034 RMK A01 T10521083  RH  079%=      5-min Rain = 0
KST3 091411Z 30010KT M05/M08 A3034 RMK A01 T10511083  RH  078%=      5-min Rain = 0
KST3 091412Z 29009KT M05/M08 A3034 RMK A01 T10501082  RH  078%=      5-min Rain = 0
KST3 091413Z 29010KT M05/M08 A3034 RMK A01 T10511082  RH  079%=      5-min Rain = 0
KST3 091414Z 29010KT M05/M08 A3034 RMK A01 T10521083  RH  079%=      5-min Rain = 0
KST3 091415Z 30010KT M05/M08 A3034 RMK A01 T10521083  RH  079%=      5-min Rain = 0
KST3 091416Z 30011KT M05/M08 A3034 RMK A01 T10511082  RH  079%=      5-min Rain = 0
KST3 091417Z 30010KT M05/M08 A3034 RMK A01 T10501081  RH  079%=      5-min Rain = 0
KST3 091418Z 30010KT M05/M08 A3034 RMK A01 T10491081  RH  079%=      5-min Rain = 0
KST3 091419Z 30011KT M05/M08 A3034 RMK A01 T10491080  RH  078%=      5-min Rain = 0
KST3 091420Z 30010KT M05/M08 A3034 RMK A01 T10481080  RH  078%=      5-min Rain = 0
KST3 091421Z 30010KT M05/M08 A3034 RMK A01 T10461079  RH  078%=      5-min Rain = 0
KST3 091422Z 30010KT M05/M08 A3034 RMK A01 T10461078  RH  078%=      5-min Rain = 0
KST3 091423Z 30010KT M04/M08 A3034 RMK A01 T10441078  RH  078%=      5-min Rain = 0
KST3 091424Z 29009KT M04/M08 A3034 RMK A01 T10441077  RH  077%=      5-min Rain = 0
KST3 091425Z 29009KT M04/M08 A3034 RMK A01 T10431076  RH  077%=      5-min Rain = 0
KST3 091426Z 29008KT M04/M08 A3034 RMK A01 T10421076  RH  077%=      5-min Rain = 0
KST3 091427Z 30008KT M04/M08 A3034 RMK A01 T10421076  RH  077%=      5-min Rain = 0
KST3 091428Z 30009KT M04/M08 A3034 RMK A01 T10411076  RH  077%=      5-min Rain = 0
KST3 091429Z 30009KT M04/M08 A3034 RMK A01 T10411076  RH  077%=      5-min Rain = 0
KST3 091430Z 30009KT M04/M08 A3034 RMK A01 T10401075  RH  077%=      5-min Rain = 0
KST3 091431Z 30009KT M04/M08 A3034 RMK A01 T10401075  RH  077%=      5-min Rain = 0
KST3 091432Z 30010KT M04/M07 A3034 RMK A01 T10391074  RH  077%=      5-min Rain = 0
KST3 091433Z 30009KT M04/M07 A3034 RMK A01 T10371073  RH  076%=      5-min Rain = 0
KST3 091434Z 30009KT M04/M07 A3034 RMK A01 T10371073  RH  076%=      5-min Rain = 0
KST3 091435Z 30008KT M04/M07 A3034 RMK A01 T10361073  RH  076%=      5-min Rain = 0
KST3 091436Z 29009KT M04/M07 A3034 RMK A01 T10361072  RH  076%=      5-min Rain = 0
KST3 091437Z 29008KT M04/M07 A3034 RMK A01 T10351071  RH  076%=      5-min Rain = 0
KST3 091438Z 29009KT M04/M07 A3034 RMK A01 T10351070  RH  077%=      5-min Rain = 0
KST3 091439Z 29009KT M03/M07 A3034 RMK A01 T10341069  RH  077%=      5-min Rain = 0
KST3 091440Z 29009KT M03/M07 A3034 RMK A01 T10331068  RH  077%=      5-min Rain = 0
KST3 091441Z 29008KT M03/M07 A3034 RMK A01 T10321068  RH  076%=      5-min Rain = 0
KST3 091442Z 29008KT M03/M07 A3034 RMK A01 T10321068  RH  076%=      5-min Rain = 0
KST3 091443Z 29008KT M03/M07 A3034 RMK A01 T10321067  RH  076%=      5-min Rain = 0
KST3 091444Z 29008KT M03/M07 A3034 RMK A01 T10311066  RH  076%=      5-min Rain = 0
KST3 091445Z 30009KT M03/M07 A3034 RMK A01 T10301066  RH  076%=      5-min Rain = 0
KST3 091446Z 29009KT M03/M07 A3034 RMK A01 T10301066  RH  076%=      5-min Rain = 0
KST3 091447Z 29009KT M03/M07 A3034 RMK A01 T10291066  RH  076%=      5-min Rain = 0
KST3 091448Z 29009KT M03/M06 A3034 RMK A01 T10281064  RH  076%=      5-min Rain = 0
KST3 091449Z 30008KT M03/M06 A3034 RMK A01 T10271063  RH  076%=      5-min Rain = 0
KST3 091450Z 30009KT M03/M06 A3034 RMK A01 T10261062  RH  076%=      5-min Rain = 0
KST3 091451Z 30009KT M03/M06 A3034 RMK A01 T10261063  RH  076%=      5-min Rain = 0
KST3 091452Z 30010KT M03/M06 A3034 RMK A01 T10251063  RH  075%=      5-min Rain = 0
KST3 091453Z 30010KT M02/M06 A3034 RMK A01 T10231063  RH  074%=      5-min Rain = 0
KST3 091454Z 30010KT M02/M06 A3034 RMK A01 T10231064  RH  073%=      5-min Rain = 0
KST3 091455Z 30010KT M02/M06 A3034 RMK A01 T10221063  RH  074%=      5-min Rain = 0
KST3 091456Z 30010KT M02/M06 A3034 RMK A01 T10221062  RH  074%=      5-min Rain = 0
KST3 091457Z 30009KT M02/M06 A3034 RMK A01 T10211060  RH  075%=      5-min Rain = 0
KST3 091458Z 29008KT M02/M06 A3034 RMK A01 T10211058  RH  075%=      5-min Rain = 0
KST3 091459Z 29009KT M02/M06 A3035 RMK A01 T10201058  RH  075%=      5-min Rain = 0
KST3 091500Z 29009KT M02/M06 A3035 RMK A01 T10201058  RH  075%=      5-min Rain = 0
KST3 091501Z 30008KT M02/M06 A3035 RMK A01 T10201057  RH  076%=      5-min Rain = 0
KST3 091502Z 30008KT M02/M06 A3035 RMK A01 T10191056  RH  076%=      5-min Rain = 0
KST3 091503Z 30009KT M02/M06 A3035 RMK A01 T10181055  RH  075%=      5-min Rain = 0
KST3 091504Z 30008KT M02/M06 A3035 RMK A01 T10171055  RH  075%=      5-min Rain = 0
KST3 091505Z 31007KT M02/M06 A3035 RMK A01 T10161056  RH  075%=      5-min Rain = 0
KST3 091506Z 30007KT M02/M06 A3035 RMK A01 T10151055  RH  074%=      5-min Rain = 0
KST3 091507Z 30008KT M02/M06 A3035 RMK A01 T10151055  RH  074%=      5-min Rain = 0
KST3 091508Z 31007KT M01/M05 A3035 RMK A01 T10141054  RH  074%=      5-min Rain = 0
KST3 091509Z 31007KT M01/M05 A3035 RMK A01 T10121052  RH  074%=      5-min Rain = 0
KST3 091510Z 31007KT M01/M05 A3035 RMK A01 T10111053  RH  074%=      5-min Rain = 0
KST3 091511Z 31007KT M01/M05 A3035 RMK A01 T10101052  RH  074%=      5-min Rain = 0
KST3 091512Z 31009KT M01/M05 A3035 RMK A01 T10101051  RH  074%=      5-min Rain = 0
KST3 091513Z 30007KT M01/M05 A3035 RMK A01 T10101051  RH  073%=      5-min Rain = 0
KST3 091514Z 30008KT M01/M05 A3035 RMK A01 T10091051  RH  074%=      5-min Rain = 0
KST3 091515Z 31007KT M01/M05 A3035 RMK A01 T10081049  RH  074%=      5-min Rain = 0
KST3 091516Z 31009KT M01/M05 A3035 RMK A01 T10081050  RH  073%=      5-min Rain = 0
KST3 091517Z 31009KT M01/M05 A3035 RMK A01 T10081050  RH  073%=      5-min Rain = 0
KST3 091518Z 31009KT M01/M05 A3035 RMK A01 T10081050  RH  073%=      5-min Rain = 0
KST3 091519Z 31008KT M01/M05 A3035 RMK A01 T10071049  RH  073%=      5-min Rain = 0
KST3 091520Z 30007KT M01/M05 A3035 RMK A01 T10071048  RH  074%=      5-min Rain = 0
KST3 091521Z 31009KT M01/M05 A3035 RMK A01 T10051046  RH  074%=      5-min Rain = 0
KST3 091522Z 31009KT M00/M05 A3035 RMK A01 T10041046  RH  073%=      5-min Rain = 0
KST3 091523Z 31010KT M00/M05 A3035 RMK A01 T10031046  RH  073%=      5-min Rain = 0
KST3 091524Z 31010KT M00/M05 A3035 RMK A01 T10031047  RH  073%=      5-min Rain = 0
KST3 091525Z 32009KT M00/M05 A3035 RMK A01 T10021045  RH  073%=      5-min Rain = 0
KST3 091526Z 31010KT M00/M04 A3035 RMK A01 T10011044  RH  073%=      5-min Rain = 0
KST3 091527Z 31009KT 00/04 A3036 RMK A01 T00-00-44  RH  072%=      5-min Rain = 0
KST3 091528Z 31010KT 00/M04 A3036 RMK A01 T00011044  RH  072%=      5-min Rain = 0
KST3 091529Z 31011KT 00/M04 A3036 RMK A01 T00011044  RH  072%=      5-min Rain = 0
KST3 091530Z 31010KT 00/M04 A3036 RMK A01 T00011044  RH  072%=      5-min Rain = 0
KST3 091531Z 32010KT 00/M04 A3036 RMK A01 T00021043  RH  071%=      5-min Rain = 0
KST3 091532Z 31009KT 00/M04 A3036 RMK A01 T00041041  RH  072%=      5-min Rain = 0
KST3 091533Z 31009KT 01/M04 A3036 RMK A01 T00051040  RH  071%=      5-min Rain = 0
KST3 091534Z 31009KT 01/M04 A3036 RMK A01 T00061041  RH  071%=      5-min Rain = 0
KST3 091535Z 31009KT 01/M04 A3036 RMK A01 T00051042  RH  071%=      5-min Rain = 0
KST3 091536Z 31010KT 01/M04 A3036 RMK A01 T00051042  RH  071%=      5-min Rain = 0
KST3 091537Z 31009KT 01/M04 A3036 RMK A01 T00051043  RH  070%=      5-min Rain = 0
KST3 091538Z 31008KT 01/M04 A3036 RMK A01 T00051043  RH  071%=      5-min Rain = 0
KST3 091539Z 31008KT 01/M04 A3036 RMK A01 T00051041  RH  071%=      5-min Rain = 0
KST3 091540Z 32009KT 01/M04 A3036 RMK A01 T00061040  RH  071%=      5-min Rain = 0
KST3 091541Z 31010KT 01/M04 A3037 RMK A01 T00071040  RH  071%=      5-min Rain = 0
KST3 091542Z 31010KT 01/M04 A3037 RMK A01 T00071041  RH  070%=      5-min Rain = 0
KST3 091543Z 31008KT 01/M04 A3037 RMK A01 T00071041  RH  070%=      5-min Rain = 0
KST3 091544Z 31009KT 01/M04 A3037 RMK A01 T00081040  RH  071%=      5-min Rain = 0
KST3 091545Z 32011KT 01/M04 A3037 RMK A01 T00091040  RH  070%=      5-min Rain = 0
KST3 091546Z 31009KT 01/M04 A3037 RMK A01 T00081041  RH  069%=      5-min Rain = 0
KST3 091547Z 32010KT 01/M04 A3037 RMK A01 T00091040  RH  070%=      5-min Rain = 0
KST3 091548Z 32012KT 01/M04 A3037 RMK A01 T00091040  RH  070%=      5-min Rain = 0
KST3 091549Z 32011KT 01/M04 A3037 RMK A01 T00091043  RH  068%=      5-min Rain = 0
KST3 091550Z 31011KT 01/M04 A3037 RMK A01 T00071044  RH  069%=      5-min Rain = 0
KST3 091551Z 31013KT 01/M04 A3037 RMK A01 T00061044  RH  069%=      5-min Rain = 0
KST3 091552Z 31012KT 01/M04 A3037 RMK A01 T00051044  RH  070%=      5-min Rain = 0
KST3 091553Z 31010KT 00/M04 A3037 RMK A01 T00041044  RH  071%=      5-min Rain = 0
KST3 091554Z 32011KT 00/M04 A3037 RMK A01 T00031043  RH  071%=      5-min Rain = 0
KST3 091555Z 32011KT 00/M04 A3037 RMK A01 T00031044  RH  071%=      5-min Rain = 0
KST3 091556Z 32011KT 00/M04 A3038 RMK A01 T00031044  RH  071%=      5-min Rain = 0
KST3 091557Z 32010KT 00/M04 A3038 RMK A01 T00041043  RH  071%=      5-min Rain = 0
KST3 091558Z 32012KT 01/M04 A3038 RMK A01 T00051042  RH  071%=      5-min Rain = 0
KST3 091559Z 32012KT 01/M04 A3038 RMK A01 T00071043  RH  069%=      5-min Rain = 0
KST3 091600Z 32010KT 01/M05 A3038 RMK A01 T00071045  RH  068%=      5-min Rain = 0
KST3 091601Z 33011KT 01/M04 A3038 RMK A01 T00081043  RH  068%=      5-min Rain = 0
KST3 091602Z 33012KT 01/M04 A3038 RMK A01 T00101043  RH  068%=      5-min Rain = 0
KST3 091603Z 33012KT 01/M04 A3038 RMK A01 T00101044  RH  067%=      5-min Rain = 0
KST3 091604Z 33012KT 01/M04 A3038 RMK A01 T00111043  RH  067%=      5-min Rain = 0
KST3 091605Z 33010KT 01/M04 A3038 RMK A01 T00121043  RH  067%=      5-min Rain = 0
KST3 091606Z 33011KT 01/M04 A3038 RMK A01 T00141041  RH  067%=      5-min Rain = 0
KST3 091607Z 33011KT 02/M04 A3038 RMK A01 T00171041  RH  066%=      5-min Rain = 0
KST3 091608Z 34012KT 02/M04 A3038 RMK A01 T00181043  RH  064%=      5-min Rain = 0
KST3 091609Z 34013KT 02/M04 A3038 RMK A01 T00171044  RH  064%=      5-min Rain = 0
KST3 091610Z 34011KT 02/M04 A3038 RMK A01 T00171043  RH  064%=      5-min Rain = 0
KST3 091611Z 34011KT 02/M04 A3038 RMK A01 T00171043  RH  064%=      5-min Rain = 0
KST3 091612Z 35011KT 02/M04 A3038 RMK A01 T00181043  RH  064%=      5-min Rain = 0
KST3 091613Z 34012KT 02/M04 A3038 RMK A01 T00181044  RH  063%=      5-min Rain = 0
KST3 091614Z 35010KT 02/M04 A3038 RMK A01 T00181044  RH  063%=      5-min Rain = 0
KST3 091615Z 35009KT 02/M04 A3038 RMK A01 T00201041  RH  064%=      5-min Rain = 0
KST3 091616Z 35011KT 02/M04 A3038 RMK A01 T00221041  RH  063%=      5-min Rain = 0
KST3 091617Z 35013KT 02/M04 A3038 RMK A01 T00221043  RH  062%=      5-min Rain = 0
KST3 091618Z 35011KT 02/M05 A3038 RMK A01 T00201045  RH  062%=      5-min Rain = 0
KST3 091619Z 35011KT 02/M04 A3038 RMK A01 T00211044  RH  062%=      5-min Rain = 0
KST3 091620Z 36012KT 02/M04 A3038 RMK A01 T00221044  RH  061%=      5-min Rain = 0
KST3 091621Z 36011KT 02/M05 A3038 RMK A01 T00231045  RH  061%=      5-min Rain = 0
KST3 091622Z 00011KT 02/M05 A3038 RMK A01 T00241045  RH  060%=      5-min Rain = 0
KST3 091623Z 35013KT 02/M05 A3038 RMK A01 T00241045  RH  060%=      5-min Rain = 0
KST3 091624Z 35013KT 02/M05 A3038 RMK A01 T00241046  RH  060%=      5-min Rain = 0
KST3 091625Z 00012KT 03/M05 A3038 RMK A01 T00251045  RH  060%=      5-min Rain = 0
KST3 091626Z 00014KT 03/M05 A3038 RMK A01 T00271045  RH  059%=      5-min Rain = 0
KST3 091627Z 36011KT 03/M05 A3038 RMK A01 T00271045  RH  059%=      5-min Rain = 0
KST3 091628Z 35009KT 03/M04 A3038 RMK A01 T00281044  RH  059%=      5-min Rain = 0
KST3 091629Z 00010KT 03/M04 A3038 RMK A01 T00311041  RH  059%=      5-min Rain = 0
KST3 091630Z 35011KT 03/M04 A3038 RMK A01 T00341042  RH  058%=      5-min Rain = 0
KST3 091631Z 36013KT 03/M05 A3038 RMK A01 T00331045  RH  057%=      5-min Rain = 0
KST3 091632Z 01012KT 03/M05 A3038 RMK A01 T00311047  RH  056%=      5-min Rain = 0
KST3 091633Z 01012KT 03/M05 A3038 RMK A01 T00311046  RH  057%=      5-min Rain = 0
KST3 091634Z 00012KT 03/M05 A3038 RMK A01 T00301046  RH  057%=      5-min Rain = 0
KST3 091635Z 36012KT 03/M05 A3038 RMK A01 T00311046  RH  057%=      5-min Rain = 0
KST3 091636Z 36011KT 03/M05 A3038 RMK A01 T00311046  RH  057%=      5-min Rain = 0
KST3 091637Z 00011KT 03/M04 A3038 RMK A01 T00321044  RH  057%=      5-min Rain = 0
KST3 091638Z 36010KT 03/M04 A3038 RMK A01 T00341044  RH  057%=      5-min Rain = 0
KST3 091639Z 00011KT 04/M04 A3038 RMK A01 T00361042  RH  057%=      5-min Rain = 0
KST3 091640Z 36010KT 04/M04 A3038 RMK A01 T00371043  RH  056%=      5-min Rain = 0
KST3 091641Z 35009KT 04/M04 A3038 RMK A01 T00371041  RH  056%=      5-min Rain = 0
KST3 091642Z 35010KT 04/M04 A3038 RMK A01 T00391040  RH  056%=      5-min Rain = 0
KST3 091643Z 36010KT 04/M04 A3038 RMK A01 T00391042  RH  055%=      5-min Rain = 0
KST3 091644Z 35009KT 04/M04 A3038 RMK A01 T00371043  RH  056%=      5-min Rain = 0
KST3 091645Z 36010KT 04/M04 A3038 RMK A01 T00391040  RH  056%=      5-min Rain = 0
KST3 091646Z 01010KT 04/M04 A3038 RMK A01 T00411042  RH  055%=      5-min Rain = 0
KST3 091647Z 02009KT 04/M04 A3038 RMK A01 T00411042  RH  055%=      5-min Rain = 0
KST3 091648Z 00009KT 04/M04 A3038 RMK A01 T00411041  RH  055%=      5-min Rain = 0
KST3 091649Z 01010KT 04/M04 A3038 RMK A01 T00441040  RH  055%=      5-min Rain = 0
KST3 091650Z 01011KT 05/M04 A3038 RMK A01 T00451042  RH  054%=      5-min Rain = 0
KST3 091651Z 01011KT 04/M04 A3038 RMK A01 T00431043  RH  053%=      5-min Rain = 0
KST3 091652Z 01011KT 04/M04 A3038 RMK A01 T00431043  RH  054%=      5-min Rain = 0
KST3 091653Z 01010KT 04/M04 A3038 RMK A01 T00421043  RH  054%=      5-min Rain = 0
KST3 091654Z 02011KT 04/M04 A3038 RMK A01 T00421043  RH  054%=      5-min Rain = 0
KST3 091655Z 01010KT 04/M04 A3038 RMK A01 T00431042  RH  054%=      5-min Rain = 0
KST3 091656Z 01011KT 04/M04 A3038 RMK A01 T00441042  RH  054%=      5-min Rain = 0
KST3 091657Z 36011KT 04/M04 A3038 RMK A01 T00441042  RH  053%=      5-min Rain = 0
KST3 091658Z 36010KT 04/M04 A3038 RMK A01 T00441042  RH  054%=      5-min Rain = 0
KST3 091659Z 36010KT 05/M04 A3038 RMK A01 T00451042  RH  053%=      5-min Rain = 0
KST3 091700Z 35010KT 04/M04 A3038 RMK A01 T00441044  RH  053%=      5-min Rain = 0
KST3 091701Z 00009KT 04/M04 A3038 RMK A01 T00441043  RH  053%=      5-min Rain = 0
KST3 091702Z 01010KT 04/M04 A3038 RMK A01 T00441042  RH  054%=      5-min Rain = 0
KST3 091703Z 00010KT 05/M04 A3038 RMK A01 T00451043  RH  053%=      5-min Rain = 0
KST3 091704Z 00010KT 04/M04 A3038 RMK A01 T00441043  RH  053%=      5-min Rain = 0
KST3 091705Z 01008KT 04/M04 A3038 RMK A01 T00441042  RH  053%=      5-min Rain = 0
KST3 091706Z 01008KT 04/M04 A3038 RMK A01 T00441042  RH  054%=      5-min Rain = 0
KST3 091707Z 02009KT 05/M04 A3038 RMK A01 T00461041  RH  053%=      5-min Rain = 0
KST3 091708Z 01008KT 05/M04 A3038 RMK A01 T00471042  RH  053%=      5-min Rain = 0
KST3 091709Z 01008KT 05/M04 A3038 RMK A01 T00481040  RH  053%=      5-min Rain = 0
KST3 091710Z 36008KT 05/M04 A3038 RMK A01 T00501040  RH  052%=      5-min Rain = 0
KST3 091711Z 35009KT 05/M04 A3038 RMK A01 T00511041  RH  052%=      5-min Rain = 0
KST3 091712Z 35008KT 05/M04 A3038 RMK A01 T00511042  RH  051%=      5-min Rain = 0
KST3 091713Z 35008KT 05/M04 A3038 RMK A01 T00521039  RH  052%=      5-min Rain = 0
KST3 091714Z 35008KT 06/M04 A3038 RMK A01 T00551038  RH  051%=      5-min Rain = 0
KST3 091715Z 00009KT 06/M04 A3038 RMK A01 T00561039  RH  050%=      5-min Rain = 0
KST3 091716Z 00008KT 06/M04 A3038 RMK A01 T00551041  RH  050%=      5-min Rain = 0
KST3 091717Z 35008KT 05/M04 A3038 RMK A01 T00541041  RH  051%=      5-min Rain = 0
KST3 091718Z 35008KT 05/M04 A3038 RMK A01 T00541041  RH  050%=      5-min Rain = 0
KST3 091719Z 35008KT 05/M04 A3038 RMK A01 T00531042  RH  050%=      5-min Rain = 0
KST3 091720Z 36009KT 05/M04 A3038 RMK A01 T00521042  RH  050%=      5-min Rain = 0
KST3 091721Z 36009KT 05/M04 A3038 RMK A01 T00521042  RH  050%=      5-min Rain = 0
KST3 091722Z 35008KT 05/M04 A3037 RMK A01 T00521043  RH  051%=      5-min Rain = 0
KST3 091723Z 34007KT 05/M04 A3037 RMK A01 T00511041  RH  051%=      5-min Rain = 0
KST3 091724Z 01007KT 05/M04 A3037 RMK A01 T00541039  RH  051%=      5-min Rain = 0
KST3 091725Z 01009KT 06/M04 A3037 RMK A01 T00551040  RH  050%=      5-min Rain = 0
KST3 091726Z 01008KT 06/M04 A3037 RMK A01 T00571040  RH  050%=      5-min Rain = 0
KST3 091727Z 00008KT 06/M04 A3037 RMK A01 T00591040  RH  049%=      5-min Rain = 0
KST3 091728Z 01008KT 06/M04 A3037 RMK A01 T00591040  RH  049%=      5-min Rain = 0
KST3 091729Z 01007KT 06/M04 A3037 RMK A01 T00601041  RH  048%=      5-min Rain = 0
KST3 091730Z 00006KT 06/M04 A3037 RMK A01 T00611041  RH  048%=      5-min Rain = 0
KST3 091731Z 00008KT 06/M04 A3037 RMK A01 T00611041  RH  048%=      5-min Rain = 0
KST3 091732Z 01009KT 06/M04 A3037 RMK A01 T00621042  RH  047%=      5-min Rain = 0
KST3 091733Z 35010KT 06/M04 A3037 RMK A01 T00621042  RH  047%=      5-min Rain = 0
KST3 091734Z 34008KT 06/M04 A3037 RMK A01 T00611043  RH  047%=      5-min Rain = 0
KST3 091735Z 36010KT 06/M04 A3038 RMK A01 T00601043  RH  047%=      5-min Rain = 0
KST3 091736Z 36009KT 06/M04 A3038 RMK A01 T00611043  RH  047%=      5-min Rain = 0
KST3 091737Z 36009KT 06/M04 A3038 RMK A01 T00601043  RH  048%=      5-min Rain = 0
KST3 091738Z 35008KT 06/M04 A3038 RMK A01 T00601043  RH  048%=      5-min Rain = 0
KST3 091739Z 35007KT 06/M04 A3038 RMK A01 T00611042  RH  048%=      5-min Rain = 0
KST3 091740Z 35006KT 06/M04 A3038 RMK A01 T00641039  RH  048%=      5-min Rain = 0
KST3 091741Z 35007KT 07/M04 A3037 RMK A01 T00661039  RH  047%=      5-min Rain = 0
KST3 091742Z 00008KT 07/M04 A3037 RMK A01 T00701037  RH  046%=      5-min Rain = 0
KST3 091743Z 35007KT 07/M04 A3037 RMK A01 T00711040  RH  045%=      5-min Rain = 0
KST3 091744Z 36008KT 07/M04 A3037 RMK A01 T00691041  RH  045%=      5-min Rain = 0
KST3 091745Z 01009KT 07/M04 A3037 RMK A01 T00681043  RH  045%=      5-min Rain = 0
KST3 091746Z 01007KT 07/M05 A3037 RMK A01 T00661046  RH  045%=      5-min Rain = 0
KST3 091747Z 01006KT 06/M05 A3037 RMK A01 T00641045  RH  046%=      5-min Rain = 0
KST3 091748Z 01006KT 07/M04 A3037 RMK A01 T00651043  RH  046%=      5-min Rain = 0
KST3 091749Z 01008KT 07/M04 A3037 RMK A01 T00661043  RH  046%=      5-min Rain = 0
KST3 091750Z 01008KT 07/M05 A3037 RMK A01 T00671048  RH  044%=      5-min Rain = 0
KST3 091751Z 00008KT 07/M05 A3037 RMK A01 T00661051  RH  043%=      5-min Rain = 0
KST3 091752Z 36007KT 07/M05 A3037 RMK A01 T00661049  RH  044%=      5-min Rain = 0
KST3 091753Z 35006KT 07/M05 A3037 RMK A01 T00661048  RH  044%=      5-min Rain = 0
KST3 091754Z 02006KT 07/M05 A3037 RMK A01 T00671047  RH  044%=      5-min Rain = 0
KST3 091755Z 03006KT 07/M05 A3037 RMK A01 T00691049  RH  043%=      5-min Rain = 0
KST3 091756Z 03006KT 07/M05 A3036 RMK A01 T00671048  RH  044%=      5-min Rain = 0
KST3 091757Z 02007KT 07/M05 A3036 RMK A01 T00671049  RH  043%=      5-min Rain = 0
KST3 091758Z 03008KT 07/M05 A3036 RMK A01 T00681048  RH  043%=      5-min Rain = 0
KST3 091759Z 02006KT 07/M05 A3036 RMK A01 T00711049  RH  042%=      5-min Rain = 0
KST3 091800Z 01007KT 07/M05 A3036 RMK A01 T00691051  RH  042%=      5-min Rain = 0
KST3 091801Z 01005KT 07/M05 A3036 RMK A01 T00681054  RH  041%=      5-min Rain = 0
KST3 091802Z 03005KT 07/M06 A3036 RMK A01 T00681056  RH  041%=      5-min Rain = 0
KST3 091803Z 03006KT 07/M05 A3036 RMK A01 T00671054  RH  042%=      5-min Rain = 0
KST3 091804Z 02005KT 07/M05 A3036 RMK A01 T00681051  RH  042%=      5-min Rain = 0
KST3 091805Z 01006KT 07/M05 A3035 RMK A01 T00691050  RH  042%=      5-min Rain = 0
KST3 091806Z 02007KT 07/M05 A3035 RMK A01 T00691053  RH  041%=      5-min Rain = 0
KST3 091807Z 01007KT 07/M06 A3035 RMK A01 T00711055  RH  040%=      5-min Rain = 0
KST3 091808Z 02007KT 07/M06 A3035 RMK A01 T00731056  RH  039%=      5-min Rain = 0
KST3 091809Z 02005KT 07/M06 A3035 RMK A01 T00731056  RH  039%=      5-min Rain = 0
KST3 091810Z 02003KT 07/M06 A3035 RMK A01 T00731058  RH  039%=      5-min Rain = 0
KST3 091811Z 02002KT 07/M06 A3035 RMK A01 T00731055  RH  040%=      5-min Rain = 0
KST3 091812Z 36004KT 07/M06 A3035 RMK A01 T00741055  RH  039%=      5-min Rain = 0
KST3 091813Z 01007KT 08/M06 A3035 RMK A01 T00751056  RH  039%=      5-min Rain = 0
KST3 091814Z 35005KT 08/M06 A3035 RMK A01 T00761055  RH  039%=      5-min Rain = 0
KST3 091815Z 35005KT 08/M06 A3035 RMK A01 T00751055  RH  039%=      5-min Rain = 0
KST3 091816Z 35004KT 08/M06 A3035 RMK A01 T00751056  RH  039%=      5-min Rain = 0
KST3 091817Z 02003KT 07/M06 A3035 RMK A01 T00741056  RH  039%=      5-min Rain = 0
KST3 091818Z 36005KT 07/M06 A3035 RMK A01 T00741056  RH  039%=      5-min Rain = 0
KST3 091819Z 01002KT 08/M06 A3035 RMK A01 T00751057  RH  039%=      5-min Rain = 0
KST3 091820Z 01003KT 08/M06 A3035 RMK A01 T00751058  RH  038%=      5-min Rain = 0
KST3 091821Z 34006KT 08/M06 A3035 RMK A01 T00751057  RH  038%=      5-min Rain = 0
KST3 091822Z 35006KT 08/M06 A3035 RMK A01 T00781057  RH  038%=      5-min Rain = 0
KST3 091823Z 35006KT 08/M06 A3035 RMK A01 T00811056  RH  037%=      5-min Rain = 0
KST3 091824Z 33005KT 08/M06 A3035 RMK A01 T00811060  RH  036%=      5-min Rain = 0
KST3 091825Z 36007KT 08/M06 A3035 RMK A01 T00791060  RH  037%=      5-min Rain = 0
KST3 091826Z 34007KT 08/M06 A3035 RMK A01 T00801059  RH  037%=      5-min Rain = 0
KST3 091827Z 36006KT 08/M06 A3035 RMK A01 T00811061  RH  036%=      5-min Rain = 0
KST3 091828Z 01005KT 08/M06 A3035 RMK A01 T00801061  RH  036%=      5-min Rain = 0
KST3 091829Z 35006KT 08/M06 A3035 RMK A01 T00801060  RH  036%=      5-min Rain = 0
KST3 091830Z 35005KT 08/M06 A3035 RMK A01 T00801061  RH  036%=      5-min Rain = 0
KST3 091831Z 36004KT 08/M06 A3034 RMK A01 T00791060  RH  037%=      5-min Rain = 0
KST3 091832Z 01004KT 08/M06 A3034 RMK A01 T00791059  RH  037%=      5-min Rain = 0
KST3 091833Z 00005KT 08/M06 A3034 RMK A01 T00791059  RH  037%=      5-min Rain = 0
KST3 091834Z 34005KT 08/M06 A3034 RMK A01 T00791060  RH  037%=      5-min Rain = 0
KST3 091835Z 35004KT 08/M06 A3034 RMK A01 T00791059  RH  037%=      5-min Rain = 0
KST3 091836Z 35006KT 08/M06 A3034 RMK A01 T00801057  RH  037%=      5-min Rain = 0
KST3 091837Z 35007KT 08/M06 A3034 RMK A01 T00831060  RH  036%=      5-min Rain = 0
KST3 091838Z 01007KT 08/M06 A3034 RMK A01 T00841060  RH  036%=      5-min Rain = 0
KST3 091839Z 01005KT 08/M06 A3034 RMK A01 T00841061  RH  035%=      5-min Rain = 0
KST3 091840Z 03004KT 08/M06 A3034 RMK A01 T00831061  RH  035%=      5-min Rain = 0
KST3 091841Z 01003KT 08/M06 A3034 RMK A01 T00821062  RH  035%=      5-min Rain = 0
KST3 091842Z 01007KT 08/M06 A3034 RMK A01 T00821062  RH  036%=      5-min Rain = 0
KST3 091843Z 03006KT 08/M06 A3034 RMK A01 T00831064  RH  035%=      5-min Rain = 0
KST3 091844Z 04005KT 08/M07 A3034 RMK A01 T00841067  RH  034%=      5-min Rain = 0
KST3 091845Z 03006KT 08/M07 A3034 RMK A01 T00841067  RH  034%=      5-min Rain = 0
KST3 091846Z 02006KT 09/M07 A3034 RMK A01 T00851066  RH  034%=      5-min Rain = 0
KST3 091847Z 03006KT 09/M07 A3034 RMK A01 T00851066  RH  034%=      5-min Rain = 0
KST3 091848Z 02006KT 09/M07 A3034 RMK A01 T00851067  RH  033%=      5-min Rain = 0
KST3 091849Z 02005KT 08/M07 A3033 RMK A01 T00841070  RH  033%=      5-min Rain = 0
KST3 091850Z 02005KT 08/M07 A3033 RMK A01 T00841069  RH  033%=      5-min Rain = 0
KST3 091851Z 03006KT 08/M07 A3033 RMK A01 T00841068  RH  033%=      5-min Rain = 0
KST3 091852Z 02006KT 09/M07 A3033 RMK A01 T00861068  RH  033%=      5-min Rain = 0
KST3 091853Z 03004KT 09/M07 A3033 RMK A01 T00851069  RH  033%=      5-min Rain = 0
KST3 091854Z 03004KT 08/M07 A3033 RMK A01 T00831069  RH  033%=      5-min Rain = 0
KST3 091855Z 35004KT 08/M07 A3033 RMK A01 T00841069  RH  033%=      5-min Rain = 0
KST3 091856Z 35005KT 09/M06 A3033 RMK A01 T00861063  RH  034%=      5-min Rain = 0
KST3 091857Z 02007KT 09/M06 A3033 RMK A01 T00881061  RH  034%=      5-min Rain = 0
KST3 091858Z 03007KT 09/M07 A3033 RMK A01 T00901066  RH  032%=      5-min Rain = 0
KST3 091859Z 03007KT 09/M07 A3033 RMK A01 T00901069  RH  032%=      5-min Rain = 0
KST3 091900Z 03006KT 09/M07 A3033 RMK A01 T00891071  RH  031%=      5-min Rain = 0
KST3 091901Z 04005KT 09/M07 A3033 RMK A01 T00881073  RH  031%=      5-min Rain = 0
KST3 091902Z 03006KT 09/M07 A3033 RMK A01 T00871073  RH  031%=      5-min Rain = 0
KST3 091903Z 04006KT 09/M07 A3033 RMK A01 T00871072  RH  032%=      5-min Rain = 0
KST3 091904Z 03005KT 09/M07 A3033 RMK A01 T00871073  RH  031%=      5-min Rain = 0
KST3 091905Z 03006KT 09/M08 A3033 RMK A01 T00871075  RH  031%=      5-min Rain = 0
KST3 091906Z 02007KT 09/M07 A3033 RMK A01 T00891072  RH  031%=      5-min Rain = 0
KST3 091907Z 01005KT 09/M07 A3033 RMK A01 T00901071  RH  031%=      5-min Rain = 0
KST3 091908Z 35004KT 09/M07 A3033 RMK A01 T00901073  RH  031%=      5-min Rain = 0
KST3 091909Z 01008KT 09/M07 A3033 RMK A01 T00901071  RH  031%=      5-min Rain = 0
KST3 091910Z 01008KT 09/M07 A3033 RMK A01 T00901072  RH  031%=      5-min Rain = 0
KST3 091911Z 01007KT 09/M08 A3033 RMK A01 T00891076  RH  030%=      5-min Rain = 0
KST3 091912Z 01007KT 09/M07 A3033 RMK A01 T00871074  RH  031%=      5-min Rain = 0
KST3 091913Z 35008KT 09/M07 A3033 RMK A01 T00881069  RH  032%=      5-min Rain = 0
KST3 091914Z 35005KT 09/M07 A3033 RMK A01 T00891070  RH  032%=      5-min Rain = 0
KST3 091915Z 00004KT 09/M07 A3033 RMK A01 T00911068  RH  032%=      5-min Rain = 0
KST3 091916Z 02005KT 09/M07 A3033 RMK A01 T00921069  RH  031%=      5-min Rain = 0
KST3 091917Z 01005KT 09/M07 A3033 RMK A01 T00931071  RH  031%=      5-min Rain = 0
KST3 091918Z 36004KT 09/M07 A3033 RMK A01 T00921071  RH  031%=      5-min Rain = 0
KST3 091919Z 34000KT 09/M08 A3033 RMK A01 T00921075  RH  030%=      5-min Rain = 0
KST3 091920Z 31001KT 09/M08 A3033 RMK A01 T00911076  RH  030%=      5-min Rain = 0
KST3 091921Z 01005KT 09/M07 A3033 RMK A01 T00921073  RH  030%=      5-min Rain = 0
KST3 091922Z 01007KT 10/M07 A3033 RMK A01 T00951070  RH  031%=      5-min Rain = 0
KST3 091923Z 00008KT 10/M07 A3033 RMK A01 T00961073  RH  030%=      5-min Rain = 0
KST3 091924Z 01005KT 10/M07 A3032 RMK A01 T00961074  RH  029%=      5-min Rain = 0
KST3 091925Z 02007KT 10/M07 A3032 RMK A01 T00951073  RH  030%=      5-min Rain = 0
KST3 091926Z 03005KT 09/M07 A3032 RMK A01 T00941074  RH  030%=      5-min Rain = 0
KST3 091927Z 02007KT 09/M08 A3032 RMK A01 T00931077  RH  029%=      5-min Rain = 0
KST3 091928Z 02007KT 09/M08 A3032 RMK A01 T00921076  RH  030%=      5-min Rain = 0
KST3 091929Z 01007KT 09/M07 A3032 RMK A01 T00931073  RH  030%=      5-min Rain = 0
KST3 091930Z 01004KT 09/M07 A3032 RMK A01 T00931073  RH  030%=      5-min Rain = 0
KST3 091931Z 03005KT 09/M07 A3032 RMK A01 T00921071  RH  031%=      5-min Rain = 0
KST3 091932Z 04004KT 09/M07 A3032 RMK A01 T00921071  RH  031%=      5-min Rain = 0
KST3 091933Z 04003KT 09/M07 A3032 RMK A01 T00921071  RH  031%=      5-min Rain = 0
KST3 091934Z 06002KT 09/M07 A3032 RMK A01 T00931069  RH  031%=      5-min Rain = 0
KST3 091935Z 07001KT 09/M07 A3032 RMK A01 T00941069  RH  031%=      5-min Rain = 0
KST3 091936Z 30001KT 10/M07 A3032 RMK A01 T00961071  RH  030%=      5-min Rain = 0
KST3 091937Z 02006KT 10/M08 A3032 RMK A01 T00971075  RH  029%=      5-min Rain = 0
KST3 091938Z 35006KT 10/M08 A3032 RMK A01 T00971076  RH  029%=      5-min Rain = 0
KST3 091939Z 01007KT 10/M08 A3032 RMK A01 T00971076  RH  029%=      5-min Rain = 0
KST3 091940Z 03008KT 10/M08 A3032 RMK A01 T00981076  RH  029%=      5-min Rain = 0
KST3 091941Z 01005KT 10/M08 A3032 RMK A01 T00981076  RH  028%=      5-min Rain = 0
KST3 091942Z 02004KT 10/M08 A3032 RMK A01 T00971079  RH  028%=      5-min Rain = 0
KST3 091943Z 05005KT 10/M08 A3032 RMK A01 T00951080  RH  028%=      5-min Rain = 0
KST3 091944Z 07004KT 10/M08 A3032 RMK A01 T00951081  RH  028%=      5-min Rain = 0
KST3 091945Z 02005KT 09/M08 A3032 RMK A01 T00931082  RH  028%=      5-min Rain = 0
KST3 091946Z 02008KT 09/M08 A3032 RMK A01 T00941080  RH  028%=      5-min Rain = 0
KST3 091947Z 02008KT 10/M08 A3032 RMK A01 T00951081  RH  028%=      5-min Rain = 0
KST3 091948Z 01008KT 10/M08 A3032 RMK A01 T00961083  RH  027%=      5-min Rain = 0
KST3 091949Z 01009KT 10/M08 A3032 RMK A01 T00971082  RH  028%=      5-min Rain = 0
KST3 091950Z 36008KT 10/M08 A3032 RMK A01 T00971083  RH  027%=      5-min Rain = 0
KST3 091951Z 35006KT 10/M08 A3032 RMK A01 T00971083  RH  027%=      5-min Rain = 0
KST3 091952Z 34005KT 10/M08 A3032 RMK A01 T00991078  RH  028%=      5-min Rain = 0
KST3 091953Z 36007KT 10/M08 A3032 RMK A01 T01021078  RH  027%=      5-min Rain = 0
KST3 091954Z 00004KT 10/M08 A3032 RMK A01 T01011081  RH  027%=      5-min Rain = 0
KST3 091955Z 01003KT 10/M08 A3032 RMK A01 T00991081  RH  027%=      5-min Rain = 0
KST3 091956Z 34005KT 10/M08 A3032 RMK A01 T00971081  RH  028%=      5-min Rain = 0
KST3 091957Z 01009KT 10/M08 A3032 RMK A01 T00981080  RH  028%=      5-min Rain = 0
KST3 091958Z 01008KT 10/M08 A3032 RMK A01 T00991081  RH  027%=      5-min Rain = 0
KST3 091959Z 02006KT 10/M08 A3032 RMK A01 T00981084  RH  027%=      5-min Rain = 0
KST3 092000Z 04006KT 10/M08 A3032 RMK A01 T00971084  RH  027%=      5-min Rain = 0
KST3 092001Z 02005KT 10/M08 A3032 RMK A01 T00961084  RH  027%=      5-min Rain = 0
KST3 092002Z 34005KT 10/M08 A3032 RMK A01 T00981082  RH  027%=      5-min Rain = 0
KST3 092003Z 35004KT 10/M08 A3032 RMK A01 T01001082  RH  027%=      5-min Rain = 0
KST3 092004Z 02005KT 10/M08 A3032 RMK A01 T01021082  RH  026%=      5-min Rain = 0
KST3 092005Z 03007KT 10/M09 A3032 RMK A01 T01031088  RH  025%=      5-min Rain = 0
KST3 092006Z 03008KT 10/M09 A3032 RMK A01 T01041092  RH  024%=      5-min Rain = 0
KST3 092007Z 02006KT 10/M09 A3032 RMK A01 T01031092  RH  024%=      5-min Rain = 0
KST3 092008Z 03006KT 10/M09 A3032 RMK A01 T01021093  RH  024%=      5-min Rain = 0
KST3 092009Z 05005KT 10/M09 A3032 RMK A01 T01021091  RH  025%=      5-min Rain = 0
KST3 092010Z 05004KT 10/M09 A3032 RMK A01 T01031089  RH  025%=      5-min Rain = 0
KST3 092011Z 01006KT 10/M09 A3032 RMK A01 T01041087  RH  025%=      5-min Rain = 0
KST3 092012Z 00010KT 10/M09 A3032 RMK A01 T01041086  RH  025%=      5-min Rain = 0
KST3 092013Z 01009KT 10/M09 A3032 RMK A01 T01041088  RH  025%=      5-min Rain = 0
KST3 092014Z 01009KT 10/M09 A3032 RMK A01 T01031087  RH  025%=      5-min Rain = 0
KST3 092015Z 01009KT 10/M09 A3032 RMK A01 T01021087  RH  025%=      5-min Rain = 0
KST3 092016Z 02007KT 10/M09 A3032 RMK A01 T01021088  RH  025%=      5-min Rain = 0
KST3 092017Z 03005KT 10/M09 A3032 RMK A01 T01011089  RH  025%=      5-min Rain = 0
KST3 092018Z 03006KT 10/M09 A3032 RMK A01 T00991090  RH  025%=      5-min Rain = 0
KST3 092019Z 03008KT 10/M09 A3032 RMK A01 T01011089  RH  025%=      5-min Rain = 0
KST3 092020Z 04009KT 10/M09 A3032 RMK A01 T01021091  RH  025%=      5-min Rain = 0
KST3 092021Z 04009KT 10/M09 A3032 RMK A01 T01021090  RH  025%=      5-min Rain = 0
KST3 092022Z 03007KT 10/M09 A3032 RMK A01 T01021091  RH  025%=      5-min Rain = 0
KST3 092023Z 05007KT 10/M09 A3031 RMK A01 T01001092  RH  025%=      5-min Rain = 0
KST3 092024Z 04008KT 10/M09 A3031 RMK A01 T01001093  RH  025%=      5-min Rain = 0
KST3 092025Z 04008KT 10/M09 A3031 RMK A01 T01011091  RH  025%=      5-min Rain = 0
KST3 092026Z 04006KT 10/M09 A3031 RMK A01 T01021092  RH  025%=      5-min Rain = 0
KST3 092027Z 05005KT 10/M09 A3031 RMK A01 T01001092  RH  025%=      5-min Rain = 0
KST3 092028Z 02008KT 10/M09 A3031 RMK A01 T01011091  RH  025%=      5-min Rain = 0
KST3 092029Z 02007KT 10/M09 A3031 RMK A01 T01021089  RH  025%=      5-min Rain = 0
KST3 092030Z 02008KT 10/M09 A3031 RMK A01 T01031088  RH  025%=      5-min Rain = 0
KST3 092031Z 02010KT 11/M09 A3031 RMK A01 T01051087  RH  025%=      5-min Rain = 0
KST3 092032Z 03009KT 11/M09 A3031 RMK A01 T01061088  RH  025%=      5-min Rain = 0
KST3 092033Z 04008KT 11/M09 A3031 RMK A01 T01061090  RH  024%=      5-min Rain = 0
KST3 092034Z 05007KT 10/M09 A3031 RMK A01 T01041093  RH  024%=      5-min Rain = 0
KST3 092035Z 03007KT 10/M09 A3031 RMK A01 T01041092  RH  024%=      5-min Rain = 0
KST3 092036Z 01008KT 10/M09 A3031 RMK A01 T01041091  RH  025%=      5-min Rain = 0
KST3 092037Z 02007KT 10/M09 A3031 RMK A01 T01031090  RH  025%=      5-min Rain = 0
KST3 092038Z 02011KT 10/M09 A3031 RMK A01 T01021088  RH  025%=      5-min Rain = 0
KST3 092039Z 03009KT 10/M09 A3031 RMK A01 T01021088  RH  025%=      5-min Rain = 0
KST3 092040Z 01006KT 10/M09 A3031 RMK A01 T01001088  RH  026%=      5-min Rain = 0
KST3 092041Z 01007KT 10/M09 A3031 RMK A01 T01001085  RH  026%=      5-min Rain = 0
KST3 092042Z 04009KT 10/M08 A3031 RMK A01 T01031084  RH  026%=      5-min Rain = 0
KST3 092043Z 04009KT 10/M08 A3031 RMK A01 T01041084  RH  026%=      5-min Rain = 0
KST3 092044Z 04009KT 10/M09 A3031 RMK A01 T01021085  RH  026%=      5-min Rain = 0
KST3 092045Z 04009KT 10/M09 A3031 RMK A01 T01001085  RH  026%=      5-min Rain = 0
KST3 092046Z 03008KT 10/M08 A3031 RMK A01 T00991084  RH  027%=      5-min Rain = 0
KST3 092047Z 01009KT 10/M08 A3031 RMK A01 T00991082  RH  027%=      5-min Rain = 0
KST3 092048Z 35008KT 10/M08 A3031 RMK A01 T01001081  RH  027%=      5-min Rain = 0
KST3 092049Z 35007KT 10/M08 A3031 RMK A01 T01001080  RH  027%=      5-min Rain = 0
KST3 092050Z 01007KT 10/M08 A3031 RMK A01 T01001081  RH  027%=      5-min Rain = 0
KST3 092051Z 02008KT 10/M08 A3031 RMK A01 T01001081  RH  027%=      5-min Rain = 0
KST3 092052Z 04008KT 10/M08 A3031 RMK A01 T00991081  RH  027%=      5-min Rain = 0
KST3 092053Z 04008KT 10/M08 A3031 RMK A01 T00991081  RH  027%=      5-min Rain = 0
KST3 092054Z 05009KT 10/M08 A3031 RMK A01 T00991081  RH  027%=      5-min Rain = 0
KST3 092055Z 01010KT 10/M08 A3031 RMK A01 T00981081  RH  027%=      5-min Rain = 0
KST3 092056Z 01010KT 10/M08 A3031 RMK A01 T00981080  RH  028%=      5-min Rain = 0
KST3 092057Z 01008KT 10/M08 A3031 RMK A01 T00971081  RH  028%=      5-min Rain = 0
KST3 092058Z 35009KT 10/M08 A3031 RMK A01 T00971079  RH  028%=      5-min Rain = 0
KST3 092059Z 00008KT 10/M08 A3031 RMK A01 T00961080  RH  028%=      5-min Rain = 0
KST3 092100Z 02008KT 10/M08 A3031 RMK A01 T00961080  RH  028%=      5-min Rain = 0
KST3 092101Z 03007KT 10/M08 A3031 RMK A01 T00961080  RH  028%=      5-min Rain = 0
KST3 092102Z 02009KT 10/M08 A3031 RMK A01 T00951080  RH  028%=      5-min Rain = 0
KST3 092103Z 02009KT 10/M08 A3031 RMK A01 T00951079  RH  028%=      5-min Rain = 0
KST3 092104Z 02008KT 10/M08 A3031 RMK A01 T00951079  RH  028%=      5-min Rain = 0
KST3 092105Z 01007KT 10/M08 A3031 RMK A01 T00961077  RH  029%=      5-min Rain = 0
KST3 092106Z 01008KT 10/M08 A3031 RMK A01 T00951077  RH  029%=      5-min Rain = 0
KST3 092107Z 04007KT 10/M08 A3031 RMK A01 T00951077  RH  029%=      5-min Rain = 0
KST3 092108Z 04006KT 10/M08 A3031 RMK A01 T00951079  RH  029%=      5-min Rain = 0
KST3 092109Z 04006KT 09/M08 A3031 RMK A01 T00931080  RH  029%=      5-min Rain = 0
KST3 092110Z 03006KT 09/M08 A3031 RMK A01 T00931079  RH  029%=      5-min Rain = 0
KST3 092111Z 02008KT 09/M08 A3031 RMK A01 T00931076  RH  029%=      5-min Rain = 0
KST3 092112Z 00007KT 09/M08 A3031 RMK A01 T00941076  RH  029%=      5-min Rain = 0
KST3 092113Z 35006KT 09/M08 A3031 RMK A01 T00931076  RH  029%=      5-min Rain = 0
KST3 092114Z 00007KT 09/M08 A3031 RMK A01 T00931077  RH  029%=      5-min Rain = 0
KST3 092115Z 02008KT 09/M08 A3031 RMK A01 T00921076  RH  030%=      5-min Rain = 0
KST3 092116Z 02009KT 09/M07 A3031 RMK A01 T00931074  RH  030%=      5-min Rain = 0
KST3 092117Z 02009KT 09/M07 A3031 RMK A01 T00921074  RH  030%=      5-min Rain = 0
KST3 092118Z 03010KT 09/M07 A3031 RMK A01 T00921074  RH  030%=      5-min Rain = 0
KST3 092119Z 03009KT 09/M07 A3031 RMK A01 T00921073  RH  031%=      5-min Rain = 0
KST3 092120Z 03009KT 09/M07 A3031 RMK A01 T00921073  RH  031%=      5-min Rain = 0
KST3 092121Z 04010KT 09/M07 A3031 RMK A01 T00921074  RH  030%=      5-min Rain = 0
KST3 092122Z 03009KT 09/M07 A3031 RMK A01 T00911074  RH  030%=      5-min Rain = 0
KST3 092123Z 03009KT 09/M07 A3031 RMK A01 T00911074  RH  030%=      5-min Rain = 0
KST3 092124Z 03008KT 09/M07 A3031 RMK A01 T00911074  RH  030%=      5-min Rain = 0
KST3 092125Z 02009KT 09/M07 A3031 RMK A01 T00911073  RH  031%=      5-min Rain = 0
KST3 092126Z 02007KT 09/M07 A3031 RMK A01 T00911072  RH  031%=      5-min Rain = 0
KST3 092127Z 02008KT 09/M07 A3031 RMK A01 T00911073  RH  031%=      5-min Rain = 0
KST3 092128Z 02007KT 09/M07 A3031 RMK A01 T00911072  RH  031%=      5-min Rain = 0
KST3 092129Z 02008KT 09/M07 A3031 RMK A01 T00911071  RH  031%=      5-min Rain = 0
KST3 092130Z 01010KT 09/M07 A3031 RMK A01 T00921070  RH  031%=      5-min Rain = 0
KST3 092131Z 01011KT 09/M07 A3031 RMK A01 T00911071  RH  031%=      5-min Rain = 0
KST3 092132Z 01009KT 09/M07 A3031 RMK A01 T00901071  RH  031%=      5-min Rain = 0
KST3 092133Z 02008KT 09/M07 A3031 RMK A01 T00901070  RH  031%=      5-min Rain = 0
KST3 092134Z 03007KT 09/M07 A3031 RMK A01 T00901069  RH  032%=      5-min Rain = 0
KST3 092135Z 03008KT 09/M07 A3031 RMK A01 T00911069  RH  031%=      5-min Rain = 0
KST3 092136Z 02007KT 09/M07 A3031 RMK A01 T00911070  RH  031%=      5-min Rain = 0
KST3 092137Z 02009KT 09/M07 A3031 RMK A01 T00921069  RH  031%=      5-min Rain = 0
KST3 092138Z 02009KT 09/M07 A3031 RMK A01 T00911067  RH  032%=      5-min Rain = 0
KST3 092139Z 02009KT 09/M07 A3031 RMK A01 T00921066  RH  032%=      5-min Rain = 0
KST3 092140Z 03008KT 09/M07 A3032 RMK A01 T00931065  RH  032%=      5-min Rain = 0
KST3 092141Z 03007KT 09/M07 A3032 RMK A01 T00931066  RH  032%=      5-min Rain = 0
KST3 092142Z 03007KT 09/M07 A3032 RMK A01 T00941066  RH  032%=      5-min Rain = 0
KST3 092143Z 03007KT 09/M07 A3032 RMK A01 T00931065  RH  032%=      5-min Rain = 0
KST3 092144Z 02007KT 09/M07 A3032 RMK A01 T00941065  RH  032%=      5-min Rain = 0
KST3 092145Z 03009KT 10/M06 A3032 RMK A01 T00951064  RH  032%=      5-min Rain = 0
KST3 092146Z 03011KT 10/M06 A3032 RMK A01 T00961063  RH  032%=      5-min Rain = 0
KST3 092147Z 02012KT 10/M06 A3032 RMK A01 T00961062  RH  032%=      5-min Rain = 0
KST3 092148Z 02012KT 10/M06 A3032 RMK A01 T00961062  RH  032%=      5-min Rain = 0
KST3 092149Z 02012KT 10/M06 A3032 RMK A01 T00951061  RH  033%=      5-min Rain = 0
KST3 092150Z 02013KT 09/M06 A3032 RMK A01 T00941060  RH  033%=      5-min Rain = 0
KST3 092151Z 02012KT 09/M06 A3032 RMK A01 T00931061  RH  033%=      5-min Rain = 0
KST3 092152Z 02012KT 09/M06 A3032 RMK A01 T00921061  RH  033%=      5-min Rain = 0
KST3 092153Z 03011KT 09/M06 A3032 RMK A01 T00921061  RH  033%=      5-min Rain = 0
KST3 092154Z 04013KT 09/M06 A3032 RMK A01 T00921061  RH  033%=      5-min Rain = 0
KST3 092155Z 03013KT 09/M06 A3032 RMK A01 T00911063  RH  033%=      5-min Rain = 0
KST3 092156Z 03011KT 09/M06 A3032 RMK A01 T00901063  RH  033%=      5-min Rain = 0
KST3 092157Z 03012KT 09/M06 A3032 RMK A01 T00901062  RH  034%=      5-min Rain = 0
KST3 092158Z 03010KT 09/M06 A3032 RMK A01 T00901062  RH  033%=      5-min Rain = 0
KST3 092159Z 01012KT 09/M06 A3032 RMK A01 T00901062  RH  034%=      5-min Rain = 0
KST3 092200Z 01010KT 09/M06 A3032 RMK A01 T00901062  RH  034%=      5-min Rain = 0
KST3 092201Z 02012KT 09/M06 A3032 RMK A01 T00901061  RH  034%=      5-min Rain = 0
KST3 092202Z 02011KT 09/M06 A3032 RMK A01 T00891062  RH  034%=      5-min Rain = 0
KST3 092203Z 02012KT 09/M06 A3032 RMK A01 T00881063  RH  034%=      5-min Rain = 0
KST3 092204Z 02011KT 09/M06 A3032 RMK A01 T00871063  RH  034%=      5-min Rain = 0
KST3 092205Z 01010KT 09/M06 A3032 RMK A01 T00881062  RH  034%=      5-min Rain = 0
KST3 092206Z 02011KT 09/M06 A3032 RMK A01 T00881061  RH  034%=      5-min Rain = 0
KST3 092207Z 02011KT 09/M06 A3032 RMK A01 T00881061  RH  034%=      5-min Rain = 0
KST3 092208Z 02011KT 09/M06 A3032 RMK A01 T00891061  RH  034%=      5-min Rain = 0
KST3 092209Z 02011KT 09/M06 A3032 RMK A01 T00891061  RH  034%=      5-min Rain = 0
KST3 092210Z 02011KT 09/M06 A3033 RMK A01 T00881062  RH  034%=      5-min Rain = 0
KST3 092211Z 02010KT 09/M06 A3032 RMK A01 T00881062  RH  034%=      5-min Rain = 0
KST3 092212Z 02011KT 09/M06 A3032 RMK A01 T00881062  RH  034%=      5-min Rain = 0
KST3 092213Z 02011KT 09/M06 A3033 RMK A01 T00871062  RH  034%=      5-min Rain = 0
KST3 092214Z 02011KT 09/M06 A3032 RMK A01 T00871062  RH  034%=      5-min Rain = 0
KST3 092215Z 01010KT 09/M06 A3032 RMK A01 T00871061  RH  034%=      5-min Rain = 0
KST3 092216Z 02010KT 09/M06 A3033 RMK A01 T00871061  RH  034%=      5-min Rain = 0
KST3 092217Z 01010KT 09/M06 A3032 RMK A01 T00871062  RH  034%=      5-min Rain = 0
KST3 092218Z 02010KT 09/M06 A3033 RMK A01 T00861063  RH  034%=      5-min Rain = 0
KST3 092219Z 02009KT 09/M06 A3033 RMK A01 T00861063  RH  034%=      5-min Rain = 0
KST3 092220Z 01010KT 09/M06 A3032 RMK A01 T00851064  RH  034%=      5-min Rain = 0
KST3 092221Z 01009KT 09/M06 A3033 RMK A01 T00861063  RH  034%=      5-min Rain = 0
KST3 092222Z 02010KT 09/M06 A3033 RMK A01 T00861063  RH  034%=      5-min Rain = 0
KST3 092223Z 02008KT 09/M06 A3033 RMK A01 T00861062  RH  034%=      5-min Rain = 0
KST3 092224Z 02010KT 09/M06 A3033 RMK A01 T00861063  RH  034%=      5-min Rain = 0
KST3 092225Z 02011KT 09/M06 A3033 RMK A01 T00861063  RH  034%=      5-min Rain = 0
KST3 092226Z 03009KT 09/M06 A3033 RMK A01 T00861064  RH  034%=      5-min Rain = 0
KST3 092227Z 04009KT 09/M06 A3033 RMK A01 T00851063  RH  034%=      5-min Rain = 0
KST3 092228Z 04009KT 09/M06 A3033 RMK A01 T00851064  RH  034%=      5-min Rain = 0
KST3 092229Z 04010KT 09/M06 A3033 RMK A01 T00851064  RH  034%=      5-min Rain = 0
KST3 092230Z 03009KT 09/M06 A3033 RMK A01 T00851064  RH  034%=      5-min Rain = 0
KST3 092231Z 03009KT 09/M06 A3033 RMK A01 T00851062  RH  035%=      5-min Rain = 0
KST3 092232Z 04009KT 09/M06 A3033 RMK A01 T00851062  RH  035%=      5-min Rain = 0
KST3 092233Z 02009KT 09/M06 A3033 RMK A01 T00851062  RH  035%=      5-min Rain = 0
KST3 092234Z 02010KT 09/M06 A3033 RMK A01 T00851062  RH  035%=      5-min Rain = 0
KST3 092235Z 02011KT 09/M06 A3033 RMK A01 T00851063  RH  035%=      5-min Rain = 0
KST3 092236Z 02010KT 09/M06 A3033 RMK A01 T00851063  RH  034%=      5-min Rain = 0
KST3 092237Z 02009KT 08/M06 A3033 RMK A01 T00841063  RH  035%=      5-min Rain = 0
KST3 092238Z 03008KT 08/M06 A3033 RMK A01 T00841063  RH  035%=      5-min Rain = 0
KST3 092239Z 02010KT 08/M06 A3033 RMK A01 T00841063  RH  035%=      5-min Rain = 0
KST3 092240Z 03011KT 08/M06 A3033 RMK A01 T00841063  RH  035%=      5-min Rain = 0
KST3 092241Z 03008KT 08/M06 A3033 RMK A01 T00831063  RH  035%=      5-min Rain = 0
KST3 092242Z 03010KT 08/M06 A3033 RMK A01 T00831063  RH  035%=      5-min Rain = 0
KST3 092243Z 02010KT 08/M06 A3033 RMK A01 T00831063  RH  035%=      5-min Rain = 0
KST3 092244Z 03011KT 08/M06 A3033 RMK A01 T00831063  RH  035%=      5-min Rain = 0
KST3 092245Z 03011KT 08/M06 A3033 RMK A01 T00811063  RH  035%=      5-min Rain = 0
KST3 092246Z 02009KT 08/M06 A3033 RMK A01 T00801064  RH  035%=      5-min Rain = 0
KST3 092247Z 02010KT 08/M06 A3033 RMK A01 T00801063  RH  036%=      5-min Rain = 0
KST3 092248Z 02008KT 08/M06 A3033 RMK A01 T00791064  RH  036%=      5-min Rain = 0
KST3 092249Z 02008KT 08/M06 A3033 RMK A01 T00791064  RH  036%=      5-min Rain = 0
KST3 092250Z 03008KT 08/M06 A3033 RMK A01 T00781064  RH  036%=      5-min Rain = 0
KST3 092251Z 02009KT 08/M06 A3033 RMK A01 T00771064  RH  036%=      5-min Rain = 0
KST3 092252Z 02009KT 08/M06 A3033 RMK A01 T00771064  RH  036%=      5-min Rain = 0
KST3 092253Z 02008KT 08/M06 A3033 RMK A01 T00771064  RH  036%=      5-min Rain = 0
KST3 092254Z 03008KT 08/M06 A3033 RMK A01 T00761064  RH  036%=      5-min Rain = 0
KST3 092255Z 03008KT 08/M07 A3033 RMK A01 T00751065  RH  036%=      5-min Rain = 0
KST3 092256Z 02008KT 07/M07 A3033 RMK A01 T00741065  RH  037%=      5-min Rain = 0
KST3 092257Z 02008KT 07/M07 A3033 RMK A01 T00731065  RH  037%=      5-min Rain = 0
KST3 092258Z 03008KT 07/M06 A3033 RMK A01 T00731064  RH  037%=      5-min Rain = 0
KST3 092259Z 02008KT 07/M07 A3033 RMK A01 T00731065  RH  037%=      5-min Rain = 0
KST3 092300Z 02007KT 07/M07 A3033 RMK A01 T00721065  RH  037%=      5-min Rain = 0
KST3 092301Z 02007KT 07/M07 A3033 RMK A01 T00721065  RH  037%=      5-min Rain = 0
KST3 092302Z 02007KT 07/M07 A3033 RMK A01 T00721065  RH  037%=      5-min Rain = 0
KST3 092303Z 02007KT 07/M07 A3034 RMK A01 T00721066  RH  037%=      5-min Rain = 0
KST3 092304Z 02007KT 07/M07 A3033 RMK A01 T00721065  RH  037%=      5-min Rain = 0
KST3 092305Z 02007KT 07/M07 A3033 RMK A01 T00721066  RH  037%=      5-min Rain = 0
KST3 092306Z 02006KT 07/M07 A3033 RMK A01 T00721067  RH  037%=      5-min Rain = 0
KST3 092307Z 02006KT 07/M07 A3033 RMK A01 T00711067  RH  037%=      5-min Rain = 0
KST3 092308Z 02006KT 07/M07 A3033 RMK A01 T00701067  RH  037%=      5-min Rain = 0
KST3 092309Z 02006KT 07/M07 A3033 RMK A01 T00701067  RH  037%=      5-min Rain = 0
KST3 092310Z 02006KT 07/M07 A3034 RMK A01 T00691067  RH  037%=      5-min Rain = 0
KST3 092311Z 02007KT 07/M07 A3034 RMK A01 T00681067  RH  037%=      5-min Rain = 0
KST3 092312Z 02006KT 07/M07 A3034 RMK A01 T00681067  RH  037%=      5-min Rain = 0
KST3 092313Z 02006KT 07/M07 A3034 RMK A01 T00681067  RH  038%=      5-min Rain = 0
KST3 092314Z 02006KT 07/M07 A3034 RMK A01 T00671067  RH  038%=      5-min Rain = 0
KST3 092315Z 02006KT 07/M07 A3034 RMK A01 T00671067  RH  038%=      5-min Rain = 0
KST3 092316Z 02006KT 07/M07 A3034 RMK A01 T00661067  RH  038%=      5-min Rain = 0
KST3 092317Z 02006KT 07/M07 A3034 RMK A01 T00651067  RH  038%=      5-min Rain = 0
KST3 092318Z 02006KT 07/M07 A3034 RMK A01 T00651067  RH  038%=      5-min Rain = 0
KST3 092319Z 02005KT 07/M07 A3034 RMK A01 T00651067  RH  038%=      5-min Rain = 0
KST3 092320Z 02005KT 07/M07 A3034 RMK A01 T00651067  RH  038%=      5-min Rain = 0
KST3 092321Z 02005KT 07/M07 A3034 RMK A01 T00651067  RH  038%=      5-min Rain = 0
KST3 092322Z 02004KT 07/M07 A3034 RMK A01 T00651067  RH  038%=      5-min Rain = 0
KST3 092323Z 02004KT 06/M07 A3034 RMK A01 T00641067  RH  039%=      5-min Rain = 0
KST3 092324Z 02004KT 06/M07 A3034 RMK A01 T00641067  RH  039%=      5-min Rain = 0
KST3 092325Z 02004KT 06/M07 A3034 RMK A01 T00641067  RH  039%=      5-min Rain = 0
KST3 092326Z 02004KT 06/M07 A3034 RMK A01 T00631067  RH  039%=      5-min Rain = 0
KST3 092327Z 02004KT 06/M07 A3034 RMK A01 T00631067  RH  039%=      5-min Rain = 0
KST3 092328Z 02005KT 06/M07 A3034 RMK A01 T00621067  RH  039%=      5-min Rain = 0
KST3 092329Z 02006KT 06/M07 A3034 RMK A01 T00611067  RH  039%=      5-min Rain = 0
KST3 092330Z 02005KT 06/M07 A3034 RMK A01 T00611067  RH  039%=      5-min Rain = 0
KST3 092331Z 02005KT 06/M07 A3034 RMK A01 T00601067  RH  040%=      5-min Rain = 0
KST3 092332Z 02005KT 06/M07 A3034 RMK A01 T00601066  RH  040%=      5-min Rain = 0
KST3 092333Z 02005KT 06/M07 A3034 RMK A01 T00591066  RH  040%=      5-min Rain = 0
KST3 092334Z 02004KT 06/M07 A3034 RMK A01 T00591066  RH  040%=      5-min Rain = 0
KST3 092335Z 02004KT 06/M07 A3034 RMK A01 T00591067  RH  040%=      5-min Rain = 0
KST3 092336Z 01004KT 06/M07 A3034 RMK A01 T00591067  RH  040%=      5-min Rain = 0
KST3 092337Z 01004KT 06/M07 A3034 RMK A01 T00591066  RH  040%=      5-min Rain = 0
KST3 092338Z 01004KT 06/M07 A3034 RMK A01 T00581067  RH  040%=      5-min Rain = 0
KST3 092339Z 02005KT 06/M07 A3034 RMK A01 T00581067  RH  040%=      5-min Rain = 0
KST3 092340Z 02005KT 06/M07 A3034 RMK A01 T00581067  RH  040%=      5-min Rain = 0
KST3 092341Z 02005KT 06/M07 A3034 RMK A01 T00581067  RH  040%=      5-min Rain = 0
KST3 092342Z 02004KT 06/M07 A3034 RMK A01 T00571067  RH  040%=      5-min Rain = 0
KST3 092343Z 02004KT 06/M07 A3034 RMK A01 T00571067  RH  040%=      5-min Rain = 0
KST3 092344Z 02004KT 06/M07 A3034 RMK A01 T00561067  RH  041%=      5-min Rain = 0
KST3 092345Z 02004KT 06/M07 A3034 RMK A01 T00561067  RH  041%=      5-min Rain = 0
KST3 092346Z 02004KT 06/M07 A3034 RMK A01 T00571067  RH  041%=      5-min Rain = 0
KST3 092347Z 02004KT 06/M07 A3034 RMK A01 T00561067  RH  041%=      5-min Rain = 0
KST3 092348Z 03004KT 06/M07 A3034 RMK A01 T00561067  RH  041%=      5-min Rain = 0
KST3 092349Z 03003KT 06/M07 A3034 RMK A01 T00551067  RH  041%=      5-min Rain = 0
KST3 092350Z 03003KT 06/M07 A3034 RMK A01 T00561067  RH  041%=      5-min Rain = 0
KST3 092351Z 04003KT 06/M07 A3034 RMK A01 T00561067  RH  041%=      5-min Rain = 0
KST3 092352Z 04003KT 06/M07 A3034 RMK A01 T00561067  RH  041%=      5-min Rain = 0
KST3 092353Z 04003KT 06/M07 A3034 RMK A01 T00561067  RH  041%=      5-min Rain = 0
KST3 092354Z 04003KT 06/M07 A3034 RMK A01 T00561068  RH  040%=      5-min Rain = 0
KST3 092355Z 04003KT 06/M07 A3034 RMK A01 T00571068  RH  040%=      5-min Rain = 0
KST3 092356Z 04003KT 06/M07 A3034 RMK A01 T00581068  RH  040%=      5-min Rain = 0
KST3 092357Z 04003KT 06/M07 A3034 RMK A01 T00581068  RH  040%=      5-min Rain = 0
KST3 092358Z 04003KT 06/M07 A3034 RMK A01 T00591068  RH  040%=      5-min Rain = 0
KST3 092359Z 04003KT 06/M07 A3034 RMK A01 T00591068  RH  040%=      5-min Rain = 0
KST3 100000Z 04003KT 06/M07 A3034 RMK A01 T00591069  RH  039%=      5-min Rain = 0
KST3 100001Z 04003KT 06/M07 A3034 RMK A01 T00591069  RH  039%=      5-min Rain = 0
KST3 100002Z 05003KT 06/M07 A3034 RMK A01 T00591069  RH  039%=      5-min Rain = 0
KST3 100003Z 05003KT 06/M07 A3034 RMK A01 T00591069  RH  039%=      5-min Rain = 0
KST3 100004Z 06003KT 06/M07 A3034 RMK A01 T00601069  RH  039%=      5-min Rain = 0
KST3 100005Z 06003KT 06/M07 A3034 RMK A01 T00601070  RH  039%=      5-min Rain = 0
KST3 100006Z 06003KT 06/M07 A3034 RMK A01 T00601070  RH  039%=      5-min Rain = 0
KST3 100007Z 05003KT 06/M07 A3034 RMK A01 T00601070  RH  039%=      5-min Rain = 0
KST3 100008Z 05003KT 06/M07 A3034 RMK A01 T00611070  RH  039%=      5-min Rain = 0
KST3 100009Z 05003KT 06/M07 A3034 RMK A01 T00611070  RH  038%=      5-min Rain = 0
KST3 100010Z 04002KT 06/M07 A3034 RMK A01 T00611070  RH  038%=      5-min Rain = 0
KST3 100011Z 04002KT 06/M07 A3034 RMK A01 T00611070  RH  039%=      5-min Rain = 0
KST3 100012Z 04002KT 06/M07 A3034 RMK A01 T00601070  RH  039%=      5-min Rain = 0
KST3 100013Z 04002KT 06/M07 A3034 RMK A01 T00591070  RH  039%=      5-min Rain = 0
KST3 100014Z 05002KT 06/M07 A3034 RMK A01 T00581070  RH  039%=      5-min Rain = 0
KST3 100015Z 06002KT 06/M07 A3034 RMK A01 T00581070  RH  039%=      5-min Rain = 0
KST3 100016Z 06002KT 06/M07 A3034 RMK A01 T00571070  RH  039%=      5-min Rain = 0
KST3 100017Z 08002KT 06/M07 A3034 RMK A01 T00571070  RH  039%=      5-min Rain = 0
KST3 100018Z 08001KT 06/M07 A3034 RMK A01 T00571070  RH  039%=      5-min Rain = 0
KST3 100019Z 08002KT 06/M07 A3034 RMK A01 T00571070  RH  039%=      5-min Rain = 0
KST3 100020Z 08001KT 06/M07 A3034 RMK A01 T00571071  RH  039%=      5-min Rain = 0
KST3 100021Z 08001KT 06/M07 A3034 RMK A01 T00571071  RH  039%=      5-min Rain = 0
KST3 100022Z 08001KT 06/M07 A3034 RMK A01 T00561072  RH  039%=      5-min Rain = 0
KST3 100023Z 07001KT 06/M07 A3034 RMK A01 T00561071  RH  039%=      5-min Rain = 0
KST3 100024Z 06001KT 06/M07 A3034 RMK A01 T00561071  RH  039%=      5-min Rain = 0
KST3 100025Z 05002KT 06/M07 A3034 RMK A01 T00571071  RH  039%=      5-min Rain = 0
KST3 100026Z 04002KT 06/M07 A3034 RMK A01 T00571071  RH  039%=      5-min Rain = 0
KST3 100027Z 03002KT 06/M07 A3034 RMK A01 T00581071  RH  039%=      5-min Rain = 0
KST3 100028Z 03002KT 06/M07 A3034 RMK A01 T00591071  RH  039%=      5-min Rain = 0
KST3 100029Z 02002KT 06/M07 A3034 RMK A01 T00601071  RH  038%=      5-min Rain = 0
KST3 100030Z 02002KT 06/M07 A3034 RMK A01 T00601071  RH  038%=      5-min Rain = 0
KST3 100031Z 02001KT 06/M07 A3034 RMK A01 T00601071  RH  038%=      5-min Rain = 0
KST3 100032Z 02001KT 06/M07 A3034 RMK A01 T00601071  RH  038%=      5-min Rain = 0
KST3 100033Z 02001KT 06/M07 A3034 RMK A01 T00601071  RH  038%=      5-min Rain = 0
KST3 100034Z 02001KT 06/M07 A3035 RMK A01 T00601071  RH  038%=      5-min Rain = 0
KST3 100035Z 02001KT 06/M07 A3035 RMK A01 T00601071  RH  038%=      5-min Rain = 0
KST3 100036Z 01001KT 06/M07 A3035 RMK A01 T00601071  RH  038%=      5-min Rain = 0
KST3 100037Z 00001KT 06/M07 A3035 RMK A01 T00611071  RH  038%=      5-min Rain = 0
KST3 100038Z 00001KT 06/M07 A3035 RMK A01 T00601071  RH  038%=      5-min Rain = 0
KST3 100039Z 36002KT 06/M07 A3035 RMK A01 T00611071  RH  038%=      5-min Rain = 0
KST3 100040Z 35002KT 06/M07 A3035 RMK A01 T00601071  RH  039%=      5-min Rain = 0
KST3 100041Z 35002KT 06/M07 A3035 RMK A01 T00591071  RH  039%=      5-min Rain = 0
KST3 100042Z 35002KT 06/M07 A3035 RMK A01 T00591070  RH  039%=      5-min Rain = 0
KST3 100043Z 34003KT 06/M07 A3035 RMK A01 T00581071  RH  039%=      5-min Rain = 0
KST3 100044Z 34003KT 06/M07 A3035 RMK A01 T00571071  RH  039%=      5-min Rain = 0
KST3 100045Z 34002KT 06/M07 A3035 RMK A01 T00571071  RH  039%=      5-min Rain = 0
KST3 100046Z 34003KT 06/M07 A3035 RMK A01 T00561070  RH  040%=      5-min Rain = 0
KST3 100047Z 34003KT 06/M07 A3035 RMK A01 T00561070  RH  040%=      5-min Rain = 0
KST3 100048Z 34003KT 06/M07 A3035 RMK A01 T00561070  RH  040%=      5-min Rain = 0
KST3 100049Z 34003KT 06/M07 A3035 RMK A01 T00551070  RH  040%=      5-min Rain = 0
KST3 100050Z 34003KT 05/M07 A3035 RMK A01 T00541069  RH  041%=      5-min Rain = 0
KST3 100051Z 34003KT 05/M07 A3035 RMK A01 T00541069  RH  041%=      5-min Rain = 0
KST3 100052Z 34003KT 05/M07 A3035 RMK A01 T00531069  RH  041%=      5-min Rain = 0
KST3 100053Z 34003KT 05/M07 A3035 RMK A01 T00531069  RH  041%=      5-min Rain = 0
KST3 100054Z 34004KT 05/M07 A3035 RMK A01 T00511069  RH  041%=      5-min Rain = 0
KST3 100055Z 34004KT 05/M07 A3035 RMK A01 T00501069  RH  042%=      5-min Rain = 0
KST3 100056Z 34004KT 05/M07 A3035 RMK A01 T00491070  RH  042%=      5-min Rain = 0
KST3 100057Z 34004KT 05/M07 A3035 RMK A01 T00471070  RH  042%=      5-min Rain = 0
KST3 100058Z 34004KT 05/M07 A3035 RMK A01 T00471069  RH  043%=      5-min Rain = 0
KST3 100059Z 34004KT 05/M07 A3035 RMK A01 T00471068  RH  043%=      5-min Rain = 0
KST3 100100Z 34004KT 05/M07 A3035 RMK A01 T00471069  RH  043%=      5-min Rain = 0
KST3 100101Z 34005KT 05/M07 A3035 RMK A01 T00481069  RH  043%=      5-min Rain = 0
KST3 100102Z 35004KT 05/M07 A3035 RMK A01 T00471069  RH  043%=      5-min Rain = 0
KST3 100103Z 35005KT 05/M07 A3035 RMK A01 T00451069  RH  043%=      5-min Rain = 0
KST3 100104Z 35005KT 04/M07 A3035 RMK A01 T00431069  RH  044%=      5-min Rain = 0
KST3 100105Z 35005KT 04/M07 A3035 RMK A01 T00431069  RH  044%=      5-min Rain = 0
KST3 100106Z 34005KT 04/M07 A3035 RMK A01 T00421068  RH  044%=      5-min Rain = 0
KST3 100107Z 35005KT 04/M07 A3035 RMK A01 T00421068  RH  045%=      5-min Rain = 0
KST3 100108Z 35005KT 04/M07 A3035 RMK A01 T00421067  RH  045%=      5-min Rain = 0
KST3 100109Z 35005KT 04/M07 A3035 RMK A01 T00411067  RH  045%=      5-min Rain = 0
KST3 100110Z 35005KT 04/M07 A3035 RMK A01 T00411067  RH  045%=      5-min Rain = 0
KST3 100111Z 35004KT 04/M07 A3035 RMK A01 T00421066  RH  045%=      5-min Rain = 0
KST3 100112Z 34004KT 04/M07 A3035 RMK A01 T00431066  RH  045%=      5-min Rain = 0
KST3 100113Z 34004KT 04/M07 A3035 RMK A01 T00441066  RH  045%=      5-min Rain = 0
KST3 100114Z 34003KT 04/M07 A3035 RMK A01 T00441066  RH  045%=      5-min Rain = 0
KST3 100115Z 35003KT 05/M07 A3035 RMK A01 T00451066  RH  044%=      5-min Rain = 0
KST3 100116Z 35003KT 05/M07 A3035 RMK A01 T00461066  RH  044%=      5-min Rain = 0
KST3 100117Z 35003KT 05/M07 A3035 RMK A01 T00481066  RH  043%=      5-min Rain = 0
KST3 100118Z 35003KT 05/M07 A3035 RMK A01 T00491066  RH  043%=      5-min Rain = 0
KST3 100119Z 35003KT 05/M07 A3035 RMK A01 T00511066  RH  043%=      5-min Rain = 0
KST3 100120Z 35003KT 05/M07 A3035 RMK A01 T00521066  RH  042%=      5-min Rain = 0
KST3 100121Z 35003KT 05/M07 A3035 RMK A01 T00521066  RH  042%=      5-min Rain = 0
KST3 100122Z 35003KT 05/M07 A3035 RMK A01 T00521067  RH  042%=      5-min Rain = 0
KST3 100123Z 35003KT 05/M07 A3035 RMK A01 T00531067  RH  042%=      5-min Rain = 0
KST3 100124Z 35003KT 05/M07 A3035 RMK A01 T00531067  RH  042%=      5-min Rain = 0
KST3 100125Z 35003KT 05/M07 A3035 RMK A01 T00531067  RH  042%=      5-min Rain = 0
KST3 100126Z 35003KT 05/M07 A3035 RMK A01 T00531066  RH  042%=      5-min Rain = 0
KST3 100127Z 35004KT 05/M07 A3035 RMK A01 T00531067  RH  042%=      5-min Rain = 0
KST3 100128Z 35003KT 05/M07 A3035 RMK A01 T00531067  RH  042%=      5-min Rain = 0
KST3 100129Z 35004KT 05/M07 A3035 RMK A01 T00531067  RH  042%=      5-min Rain = 0
KST3 100130Z 35004KT 05/M07 A3035 RMK A01 T00531067  RH  041%=      5-min Rain = 0
KST3 100131Z 35004KT 05/M07 A3035 RMK A01 T00531068  RH  041%=      5-min Rain = 0
KST3 100132Z 35003KT 05/M07 A3035 RMK A01 T00531067  RH  041%=      5-min Rain = 0
KST3 100133Z 35003KT 05/M07 A3035 RMK A01 T00531068  RH  042%=      5-min Rain = 0
KST3 100134Z 35003KT 05/M07 A3035 RMK A01 T00531067  RH  042%=      5-min Rain = 0
KST3 100135Z 35003KT 05/M07 A3035 RMK A01 T00521067  RH  042%=      5-min Rain = 0
KST3 100136Z 35004KT 05/M07 A3035 RMK A01 T00521067  RH  042%=      5-min Rain = 0
KST3 100137Z 35004KT 05/M07 A3035 RMK A01 T00511067  RH  042%=      5-min Rain = 0
KST3 100138Z 35004KT 05/M07 A3035 RMK A01 T00511067  RH  042%=      5-min Rain = 0
KST3 100139Z 35004KT 05/M07 A3035 RMK A01 T00511067  RH  042%=      5-min Rain = 0
KST3 100140Z 35004KT 05/M07 A3035 RMK A01 T00511067  RH  042%=      5-min Rain = 0
KST3 100141Z 35004KT 05/M07 A3035 RMK A01 T00511067  RH  042%=      5-min Rain = 0
KST3 100142Z 35004KT 05/M07 A3035 RMK A01 T00501067  RH  042%=      5-min Rain = 0
KST3 100143Z 35004KT 05/M07 A3035 RMK A01 T00501067  RH  042%=      5-min Rain = 0
KST3 100144Z 35004KT 05/M07 A3035 RMK A01 T00491068  RH  042%=      5-min Rain = 0
KST3 100145Z 35004KT 05/M07 A3035 RMK A01 T00491068  RH  042%=      5-min Rain = 0
KST3 100146Z 35004KT 05/M07 A3035 RMK A01 T00481068  RH  043%=      5-min Rain = 0
KST3 100147Z 35004KT 05/M07 A3035 RMK A01 T00481068  RH  043%=      5-min Rain = 0
KST3 100148Z 35004KT 05/M07 A3035 RMK A01 T00481068  RH  043%=      5-min Rain = 0
KST3 100149Z 35004KT 05/M07 A3035 RMK A01 T00491068  RH  043%=      5-min Rain = 0
KST3 100150Z 35004KT 05/M07 A3035 RMK A01 T00491068  RH  043%=      5-min Rain = 0
KST3 100151Z 35004KT 05/M07 A3035 RMK A01 T00491068  RH  042%=      5-min Rain = 0
KST3 100152Z 35004KT 05/M07 A3035 RMK A01 T00491068  RH  042%=      5-min Rain = 0
KST3 100153Z 35004KT 05/M07 A3035 RMK A01 T00481069  RH  042%=      5-min Rain = 0
KST3 100154Z 34005KT 05/M07 A3035 RMK A01 T00481068  RH  043%=      5-min Rain = 0
KST3 100155Z 34005KT 05/M07 A3035 RMK A01 T00471069  RH  043%=      5-min Rain = 0
KST3 100156Z 34005KT 05/M07 A3036 RMK A01 T00461069  RH  043%=      5-min Rain = 0
KST3 100157Z 34005KT 05/M07 A3036 RMK A01 T00471068  RH  043%=      5-min Rain = 0
KST3 100158Z 33005KT 05/M07 A3036 RMK A01 T00461068  RH  043%=      5-min Rain = 0
KST3 100159Z 33005KT 05/M07 A3036 RMK A01 T00461068  RH  043%=      5-min Rain = 0
KST3 100200Z 32005KT 05/M07 A3036 RMK A01 T00451069  RH  043%=      5-min Rain = 0
KST3 100201Z 32005KT 05/M07 A3036 RMK A01 T00451068  RH  044%=      5-min Rain = 0
KST3 100202Z 32005KT 04/M07 A3036 RMK A01 T00441068  RH  044%=      5-min Rain = 0
KST3 100203Z 32005KT 04/M07 A3036 RMK A01 T00441068  RH  044%=      5-min Rain = 0
KST3 100204Z 32005KT 04/M07 A3036 RMK A01 T00431068  RH  044%=      5-min Rain = 0
KST3 100205Z 31005KT 04/M07 A3036 RMK A01 T00421067  RH  045%=      5-min Rain = 0
KST3 100206Z 31005KT 04/M07 A3036 RMK A01 T00411068  RH  045%=      5-min Rain = 0
KST3 100207Z 32006KT 04/M07 A3036 RMK A01 T00371070  RH  046%=      5-min Rain = 0
KST3 100208Z 32005KT 03/M07 A3036 RMK A01 T00341069  RH  047%=      5-min Rain = 0
KST3 100209Z 32005KT 03/M07 A3036 RMK A01 T00321068  RH  048%=      5-min Rain = 0
KST3 100210Z 31005KT 03/M07 A3036 RMK A01 T00321068  RH  048%=      5-min Rain = 0
KST3 100211Z 31005KT 03/M07 A3036 RMK A01 T00331067  RH  048%=      5-min Rain = 0
KST3 100212Z 31006KT 03/M07 A3036 RMK A01 T00321068  RH  048%=      5-min Rain = 0
KST3 100213Z 31006KT 03/M07 A3036 RMK A01 T00321068  RH  048%=      5-min Rain = 0
KST3 100214Z 31006KT 03/M07 A3036 RMK A01 T00321067  RH  048%=      5-min Rain = 0
KST3 100215Z 31006KT 03/M07 A3036 RMK A01 T00331066  RH  048%=      5-min Rain = 0
KST3 100216Z 31006KT 03/M07 A3036 RMK A01 T00341066  RH  048%=      5-min Rain = 0
KST3 100217Z 31005KT 03/M07 A3036 RMK A01 T00331067  RH  048%=      5-min Rain = 0
KST3 100218Z 31006KT 03/M07 A3036 RMK A01 T00321067  RH  049%=      5-min Rain = 0
KST3 100219Z 30006KT 03/M07 A3036 RMK A01 T00291067  RH  049%=      5-min Rain = 0
KST3 100220Z 30006KT 03/M07 A3036 RMK A01 T00271068  RH  049%=      5-min Rain = 0
KST3 100221Z 30006KT 03/M07 A3036 RMK A01 T00251068  RH  050%=      5-min Rain = 0
KST3 100222Z 30006KT 02/M07 A3036 RMK A01 T00231069  RH  051%=      5-min Rain = 0
KST3 100223Z 30006KT 02/M07 A3036 RMK A01 T00221068  RH  051%=      5-min Rain = 0
KST3 100224Z 29006KT 02/M07 A3036 RMK A01 T00211068  RH  052%=      5-min Rain = 0
KST3 100225Z 29006KT 02/M07 A3036 RMK A01 T00201068  RH  052%=      5-min Rain = 0
KST3 100226Z 29005KT 02/M07 A3036 RMK A01 T00191068  RH  052%=      5-min Rain = 0
KST3 100227Z 28005KT 02/M07 A3036 RMK A01 T00191067  RH  053%=      5-min Rain = 0
KST3 100228Z 28005KT 02/M07 A3035 RMK A01 T00211066  RH  053%=      5-min Rain = 0
KST3 100229Z 28005KT 02/M07 A3035 RMK A01 T00211066  RH  052%=      5-min Rain = 0
KST3 100230Z 28005KT 02/M07 A3035 RMK A01 T00221066  RH  052%=      5-min Rain = 0
KST3 100231Z 28005KT 02/M07 A3035 RMK A01 T00241066  RH  052%=      5-min Rain = 0
KST3 100232Z 27006KT 02/M07 A3035 RMK A01 T00241066  RH  051%=      5-min Rain = 0
KST3 100233Z 28006KT 02/M07 A3035 RMK A01 T00231067  RH  051%=      5-min Rain = 0
KST3 100234Z 28005KT 02/M07 A3035 RMK A01 T00231067  RH  051%=      5-min Rain = 0
KST3 100235Z 28006KT 02/M07 A3036 RMK A01 T00221067  RH  052%=      5-min Rain = 0
KST3 100236Z 28006KT 02/M07 A3036 RMK A01 T00211068  RH  052%=      5-min Rain = 0
KST3 100237Z 28006KT 02/M07 A3036 RMK A01 T00201068  RH  052%=      5-min Rain = 0
KST3 100238Z 28006KT 02/M07 A3036 RMK A01 T00191068  RH  052%=      5-min Rain = 0
KST3 100239Z 28006KT 02/M07 A3036 RMK A01 T00191068  RH  053%=      5-min Rain = 0
KST3 100240Z 28006KT 02/M07 A3036 RMK A01 T00191067  RH  053%=      5-min Rain = 0
KST3 100241Z 28006KT 02/M07 A3036 RMK A01 T00181068  RH  053%=      5-min Rain = 0
KST3 100242Z 28006KT 02/M07 A3036 RMK A01 T00181067  RH  053%=      5-min Rain = 0
KST3 100243Z 28006KT 02/M07 A3036 RMK A01 T00181067  RH  053%=      5-min Rain = 0
KST3 100244Z 28005KT 02/M07 A3036 RMK A01 T00181067  RH  053%=      5-min Rain = 0
KST3 100245Z 28005KT 02/M07 A3036 RMK A01 T00181067  RH  053%=      5-min Rain = 0
KST3 100246Z 28006KT 02/M07 A3036 RMK A01 T00191067  RH  053%=      5-min Rain = 0
KST3 100247Z 28006KT 02/M07 A3036 RMK A01 T00201067  RH  053%=      5-min Rain = 0
KST3 100248Z 28006KT 02/M07 A3036 RMK A01 T00201068  RH  052%=      5-min Rain = 0
KST3 100249Z 28006KT 02/M07 A3036 RMK A01 T00201068  RH  052%=      5-min Rain = 0
KST3 100250Z 28006KT 02/M07 A3036 RMK A01 T00201068  RH  052%=      5-min Rain = 0
KST3 100251Z 28006KT 02/M07 A3036 RMK A01 T00201067  RH  052%=      5-min Rain = 0
KST3 100252Z 28006KT 02/M07 A3036 RMK A01 T00201067  RH  052%=      5-min Rain = 0
KST3 100253Z 28007KT 02/M07 A3036 RMK A01 T00191068  RH  053%=      5-min Rain = 0
KST3 100254Z 28006KT 02/M07 A3036 RMK A01 T00171068  RH  053%=      5-min Rain = 0
KST3 100255Z 28006KT 02/M07 A3036 RMK A01 T00161068  RH  053%=      5-min Rain = 0
KST3 100256Z 28006KT 02/M07 A3036 RMK A01 T00161068  RH  054%=      5-min Rain = 0
KST3 100257Z 28007KT 02/M07 A3036 RMK A01 T00161068  RH  054%=      5-min Rain = 0
KST3 100258Z 28007KT 02/M07 A3036 RMK A01 T00151068  RH  054%=      5-min Rain = 0
KST3 100259Z 28007KT 01/M07 A3036 RMK A01 T00141068  RH  054%=      5-min Rain = 0
KST3 100300Z 28007KT 01/M07 A3036 RMK A01 T00141068  RH  054%=      5-min Rain = 0
KST3 100301Z 28007KT 01/M07 A3036 RMK A01 T00131068  RH  055%=      5-min Rain = 0
KST3 100302Z 28007KT 01/M07 A3036 RMK A01 T00131068  RH  055%=      5-min Rain = 0
KST3 100303Z 28007KT 01/M07 A3036 RMK A01 T00121068  RH  055%=      5-min Rain = 0
KST3 100304Z 28007KT 01/M07 A3036 RMK A01 T00111068  RH  055%=      5-min Rain = 0
KST3 100305Z 28007KT 01/M07 A3036 RMK A01 T00111068  RH  056%=      5-min Rain = 0
KST3 100306Z 28007KT 01/M07 A3036 RMK A01 T00111068  RH  056%=      5-min Rain = 0
KST3 100307Z 28007KT 01/M07 A3036 RMK A01 T00111068  RH  056%=      5-min Rain = 0
KST3 100308Z 28007KT 01/M07 A3036 RMK A01 T00111068  RH  056%=      5-min Rain = 0
KST3 100309Z 28007KT 01/M07 A3036 RMK A01 T00111068  RH  056%=      5-min Rain = 0
KST3 100310Z 29007KT 01/M07 A3037 RMK A01 T00131067  RH  055%=      5-min Rain = 0
KST3 100311Z 29008KT 01/M07 A3037 RMK A01 T00141067  RH  055%=      5-min Rain = 0
KST3 100312Z 29007KT 02/M07 A3037 RMK A01 T00151067  RH  054%=      5-min Rain = 0
KST3 100313Z 29008KT 02/M07 A3036 RMK A01 T00161067  RH  054%=      5-min Rain = 0
KST3 100314Z 29008KT 02/M07 A3036 RMK A01 T00161067  RH  054%=      5-min Rain = 0
KST3 100315Z 29008KT 02/M07 A3036 RMK A01 T00161068  RH  054%=      5-min Rain = 0
KST3 100316Z 29008KT 01/M07 A3036 RMK A01 T00141069  RH  054%=      5-min Rain = 0
KST3 100317Z 29008KT 01/M07 A3036 RMK A01 T00131069  RH  054%=      5-min Rain = 0
KST3 100318Z 29007KT 01/M07 A3036 RMK A01 T00111069  RH  055%=      5-min Rain = 0
KST3 100319Z 29008KT 01/M07 A3036 RMK A01 T00091070  RH  055%=      5-min Rain = 0
KST3 100320Z 29007KT 01/M07 A3036 RMK A01 T00081070  RH  056%=      5-min Rain = 0
KST3 100321Z 29007KT 01/M07 A3036 RMK A01 T00071070  RH  056%=      5-min Rain = 0
KST3 100322Z 29007KT 01/M07 A3036 RMK A01 T00071070  RH  056%=      5-min Rain = 0
KST3 100323Z 29007KT 01/M07 A3036 RMK A01 T00061070  RH  057%=      5-min Rain = 0
KST3 100324Z 29007KT 01/M07 A3036 RMK A01 T00061070  RH  057%=      5-min Rain = 0
KST3 100325Z 29007KT 01/M07 A3036 RMK A01 T00061070  RH  057%=      5-min Rain = 0
KST3 100326Z 28007KT 01/M07 A3036 RMK A01 T00051070  RH  057%=      5-min Rain = 0
KST3 100327Z 28006KT 01/M07 A3036 RMK A01 T00051070  RH  057%=      5-min Rain = 0
KST3 100328Z 28007KT 01/M07 A3036 RMK A01 T00051070  RH  057%=      5-min Rain = 0
KST3 100329Z 28007KT 01/M07 A3036 RMK A01 T00051070  RH  057%=      5-min Rain = 0
KST3 100330Z 28007KT 00/M07 A3036 RMK A01 T00041071  RH  057%=      5-min Rain = 0
KST3 100331Z 28007KT 01/M07 A3036 RMK A01 T00051070  RH  057%=      5-min Rain = 0
KST3 100332Z 28007KT 01/M07 A3036 RMK A01 T00051070  RH  057%=      5-min Rain = 0
KST3 100333Z 28007KT 01/M07 A3036 RMK A01 T00061070  RH  057%=      5-min Rain = 0
KST3 100334Z 28007KT 01/M07 A3036 RMK A01 T00061070  RH  057%=      5-min Rain = 0
KST3 100335Z 28007KT 01/M07 A3036 RMK A01 T00071070  RH  056%=      5-min Rain = 0
KST3 100336Z 27007KT 01/M07 A3036 RMK A01 T00071070  RH  056%=      5-min Rain = 0
KST3 100337Z 27007KT 01/M07 A3035 RMK A01 T00081070  RH  056%=      5-min Rain = 0
KST3 100338Z 27007KT 01/M07 A3035 RMK A01 T00091069  RH  056%=      5-min Rain = 0
KST3 100339Z 27007KT 01/M07 A3035 RMK A01 T00091070  RH  056%=      5-min Rain = 0
KST3 100340Z 27007KT 01/M07 A3035 RMK A01 T00081070  RH  056%=      5-min Rain = 0
KST3 100341Z 27007KT 01/M07 A3035 RMK A01 T00081070  RH  056%=      5-min Rain = 0
KST3 100342Z 27007KT 01/M07 A3035 RMK A01 T00091070  RH  056%=      5-min Rain = 0
KST3 100343Z 27007KT 01/M07 A3035 RMK A01 T00091070  RH  056%=      5-min Rain = 0
KST3 100344Z 27008KT 01/M07 A3035 RMK A01 T00091070  RH  055%=      5-min Rain = 0
KST3 100345Z 27008KT 01/M07 A3035 RMK A01 T00101070  RH  055%=      5-min Rain = 0
KST3 100346Z 27008KT 01/M07 A3035 RMK A01 T00091070  RH  055%=      5-min Rain = 0
KST3 100347Z 27008KT 01/M07 A3035 RMK A01 T00081071  RH  056%=      5-min Rain = 0
KST3 100348Z 27008KT 01/M07 A3035 RMK A01 T00061071  RH  056%=      5-min Rain = 0
KST3 100349Z 27008KT 01/M07 A3035 RMK A01 T00061071  RH  056%=      5-min Rain = 0
KST3 100350Z 27008KT 01/M07 A3035 RMK A01 T00061070  RH  057%=      5-min Rain = 0
KST3 100351Z 27009KT 01/M07 A3035 RMK A01 T00061070  RH  057%=      5-min Rain = 0
KST3 100352Z 27009KT 01/M07 A3035 RMK A01 T00061070  RH  057%=      5-min Rain = 0
KST3 100353Z 27009KT 01/M07 A3035 RMK A01 T00061071  RH  057%=      5-min Rain = 0
KST3 100354Z 27009KT 01/M07 A3035 RMK A01 T00051071  RH  057%=      5-min Rain = 0
KST3 100355Z 27009KT 00/M07 A3035 RMK A01 T00041071  RH  057%=      5-min Rain = 0
KST3 100356Z 27009KT 00/M07 A3035 RMK A01 T00031071  RH  058%=      5-min Rain = 0
KST3 100357Z 27009KT 00/M07 A3035 RMK A01 T00021071  RH  058%=      5-min Rain = 0
KST3 100358Z 27009KT 00/M07 A3035 RMK A01 T00021071  RH  058%=      5-min Rain = 0
KST3 100359Z 27009KT 00/M07 A3035 RMK A01 T00021070  RH  058%=      5-min Rain = 0
KST3 100400Z 27009KT 00/M07 A3035 RMK A01 T00021070  RH  058%=      5-min Rain = 0
KST3 100401Z 27009KT 00/M07 A3035 RMK A01 T00021071  RH  058%=      5-min Rain = 0
KST3 100402Z 27009KT 00/M07 A3035 RMK A01 T00021070  RH  058%=      5-min Rain = 0
KST3 100403Z 27009KT 00/M07 A3035 RMK A01 T00011071  RH  058%=      5-min Rain = 0
KST3 100404Z 27009KT 00/07 A3035 RMK A01 T00000-71  RH  059%=      5-min Rain = 0
KST3 100405Z 27009KT 00/07 A3035 RMK A01 T00-00-71  RH  059%=      5-min Rain = 0
KST3 100406Z 27009KT M00/M07 A3035 RMK A01 T10011071  RH  059%=      5-min Rain = 0
KST3 100407Z 27009KT M00/M07 A3035 RMK A01 T10011071  RH  059%=      5-min Rain = 0
KST3 100408Z 27009KT M00/M07 A3035 RMK A01 T10011071  RH  059%=      5-min Rain = 0
KST3 100409Z 27009KT M00/M07 A3035 RMK A01 T10011071  RH  059%=      5-min Rain = 0
KST3 100410Z 27009KT 00/07 A3035 RMK A01 T00-00-71  RH  059%=      5-min Rain = 0
KST3 100411Z 27009KT 00/07 A3035 RMK A01 T00-00-71  RH  059%=      5-min Rain = 0
KST3 100412Z 27009KT 00/07 A3035 RMK A01 T00000-71  RH  059%=      5-min Rain = 0
KST3 100413Z 27009KT 00/M07 A3035 RMK A01 T00011071  RH  059%=      5-min Rain = 0
KST3 100414Z 27009KT 00/M07 A3035 RMK A01 T00021070  RH  058%=      5-min Rain = 0
KST3 100415Z 27009KT 00/M07 A3035 RMK A01 T00041069  RH  058%=      5-min Rain = 0
KST3 100416Z 27009KT 01/M07 A3035 RMK A01 T00051070  RH  057%=      5-min Rain = 0
KST3 100417Z 27009KT 01/M07 A3035 RMK A01 T00071069  RH  057%=      5-min Rain = 0
KST3 100418Z 27009KT 01/M07 A3035 RMK A01 T00081069  RH  057%=      5-min Rain = 0
KST3 100419Z 27009KT 01/M07 A3035 RMK A01 T00081069  RH  056%=      5-min Rain = 0
KST3 100420Z 27009KT 01/M07 A3035 RMK A01 T00091069  RH  056%=      5-min Rain = 0
KST3 100421Z 27009KT 01/M07 A3035 RMK A01 T00091069  RH  056%=      5-min Rain = 0
KST3 100422Z 27009KT 01/M07 A3035 RMK A01 T00101069  RH  056%=      5-min Rain = 0
KST3 100423Z 26009KT 01/M07 A3035 RMK A01 T00111069  RH  055%=      5-min Rain = 0
KST3 100424Z 27009KT 01/M07 A3035 RMK A01 T00101069  RH  055%=      5-min Rain = 0
KST3 100425Z 27009KT 01/M07 A3035 RMK A01 T00101069  RH  055%=      5-min Rain = 0
KST3 100426Z 27009KT 01/M07 A3035 RMK A01 T00101070  RH  055%=      5-min Rain = 0
KST3 100427Z 27009KT 01/M07 A3035 RMK A01 T00081070  RH  056%=      5-min Rain = 0
KST3 100428Z 27009KT 01/M07 A3035 RMK A01 T00071071  RH  056%=      5-min Rain = 0
KST3 100429Z 27009KT 01/M07 A3035 RMK A01 T00061070  RH  057%=      5-min Rain = 0
KST3 100430Z 27009KT 01/M07 A3035 RMK A01 T00071070  RH  057%=      5-min Rain = 0
KST3 100431Z 27009KT 01/M07 A3035 RMK A01 T00071070  RH  056%=      5-min Rain = 0
KST3 100432Z 26010KT 01/M07 A3035 RMK A01 T00091069  RH  056%=      5-min Rain = 0
KST3 100433Z 26010KT 01/M07 A3035 RMK A01 T00121068  RH  055%=      5-min Rain = 0
KST3 100434Z 27010KT 01/M07 A3035 RMK A01 T00121069  RH  055%=      5-min Rain = 0
KST3 100435Z 27010KT 01/M07 A3035 RMK A01 T00101070  RH  055%=      5-min Rain = 0
KST3 100436Z 26010KT 01/M07 A3035 RMK A01 T00101070  RH  055%=      5-min Rain = 0
KST3 100437Z 27010KT 01/M07 A3035 RMK A01 T00101069  RH  056%=      5-min Rain = 0
KST3 100438Z 27010KT 01/M07 A3035 RMK A01 T00111069  RH  055%=      5-min Rain = 0
KST3 100439Z 27010KT 01/M07 A3035 RMK A01 T00111069  RH  055%=      5-min Rain = 0
KST3 100440Z 27010KT 01/M07 A3035 RMK A01 T00111069  RH  055%=      5-min Rain = 0
KST3 100441Z 27010KT 01/M07 A3035 RMK A01 T00101069  RH  055%=      5-min Rain = 0
KST3 100442Z 27010KT 01/M07 A3035 RMK A01 T00111069  RH  055%=      5-min Rain = 0
KST3 100443Z 27010KT 01/M07 A3035 RMK A01 T00111069  RH  055%=      5-min Rain = 0
KST3 100444Z 27010KT 01/M07 A3035 RMK A01 T00101069  RH  055%=      5-min Rain = 0
KST3 100445Z 27010KT 01/M07 A3035 RMK A01 T00101070  RH  055%=      5-min Rain = 0
KST3 100446Z 27009KT 01/M07 A3035 RMK A01 T00081070  RH  056%=      5-min Rain = 0
KST3 100447Z 27010KT 01/M07 A3035 RMK A01 T00071071  RH  056%=      5-min Rain = 0
KST3 100448Z 27010KT 01/M07 A3035 RMK A01 T00051071  RH  057%=      5-min Rain = 0
KST3 100449Z 27010KT 01/M07 A3035 RMK A01 T00051071  RH  057%=      5-min Rain = 0
KST3 100450Z 27009KT 00/M07 A3035 RMK A01 T00041071  RH  057%=      5-min Rain = 0
KST3 100451Z 27009KT 00/M07 A3035 RMK A01 T00021072  RH  057%=      5-min Rain = 0
KST3 100452Z 27009KT 00/M07 A3035 RMK A01 T00011072  RH  058%=      5-min Rain = 0
KST3 100453Z 27009KT 00/M07 A3035 RMK A01 T00011071  RH  058%=      5-min Rain = 0
KST3 100454Z 27009KT 00/M07 A3034 RMK A01 T00021071  RH  058%=      5-min Rain = 0
KST3 100455Z 27009KT 00/M07 A3034 RMK A01 T00041070  RH  058%=      5-min Rain = 0
KST3 100456Z 27009KT 00/M07 A3034 RMK A01 T00041071  RH  057%=      5-min Rain = 0
KST3 100457Z 27009KT 00/M07 A3034 RMK A01 T00041072  RH  057%=      5-min Rain = 0
KST3 100458Z 27009KT 00/M07 A3034 RMK A01 T00021072  RH  057%=      5-min Rain = 0
KST3 100459Z 27010KT 00/M07 A3034 RMK A01 T00021071  RH  058%=      5-min Rain = 0
KST3 100500Z 27010KT 00/M07 A3034 RMK A01 T00031070  RH  058%=      5-min Rain = 0
KST3 100501Z 26011KT 00/M07 A3034 RMK A01 T00041070  RH  057%=      5-min Rain = 0
KST3 100502Z 27010KT 01/M07 A3034 RMK A01 T00061069  RH  057%=      5-min Rain = 0
KST3 100503Z 27010KT 01/M07 A3034 RMK A01 T00081069  RH  056%=      5-min Rain = 0
KST3 100504Z 27010KT 01/M07 A3034 RMK A01 T00081069  RH  056%=      5-min Rain = 0
KST3 100505Z 26010KT 01/M07 A3034 RMK A01 T00081069  RH  056%=      5-min Rain = 0
KST3 100506Z 26010KT 01/M07 A3034 RMK A01 T00101068  RH  056%=      5-min Rain = 0
KST3 100507Z 26010KT 01/M07 A3034 RMK A01 T00131067  RH  055%=      5-min Rain = 0
KST3 100508Z 26010KT 01/M07 A3034 RMK A01 T00141068  RH  054%=      5-min Rain = 0
KST3 100509Z 26010KT 01/M07 A3034 RMK A01 T00141069  RH  054%=      5-min Rain = 0
KST3 100510Z 26010KT 02/M07 A3034 RMK A01 T00151069  RH  054%=      5-min Rain = 0
KST3 100511Z 27010KT 01/M07 A3034 RMK A01 T00141070  RH  054%=      5-min Rain = 0
KST3 100512Z 27010KT 01/M07 A3035 RMK A01 T00121070  RH  054%=      5-min Rain = 0
KST3 100513Z 27010KT 01/M07 A3035 RMK A01 T00121070  RH  055%=      5-min Rain = 0
KST3 100514Z 27010KT 01/M07 A3035 RMK A01 T00121069  RH  055%=      5-min Rain = 0
KST3 100515Z 27010KT 01/M07 A3035 RMK A01 T00121069  RH  055%=      5-min Rain = 0
KST3 100516Z 28010KT 01/M07 A3035 RMK A01 T00121069  RH  055%=      5-min Rain = 0
KST3 100517Z 28010KT 01/M07 A3035 RMK A01 T00101070  RH  055%=      5-min Rain = 0
KST3 100518Z 28010KT 01/M07 A3035 RMK A01 T00071071  RH  056%=      5-min Rain = 0
KST3 100519Z 28010KT 01/M07 A3035 RMK A01 T00051071  RH  057%=      5-min Rain = 0
KST3 100520Z 27010KT 00/M07 A3035 RMK A01 T00041070  RH  057%=      5-min Rain = 0
KST3 100521Z 27010KT 00/M07 A3035 RMK A01 T00041070  RH  057%=      5-min Rain = 0
KST3 100522Z 28010KT 00/M07 A3035 RMK A01 T00041070  RH  057%=      5-min Rain = 0
KST3 100523Z 28010KT 00/M07 A3035 RMK A01 T00031071  RH  058%=      5-min Rain = 0
KST3 100524Z 27011KT 00/M07 A3035 RMK A01 T00031070  RH  058%=      5-min Rain = 0
KST3 100525Z 27010KT 00/M07 A3035 RMK A01 T00041070  RH  058%=      5-min Rain = 0
KST3 100526Z 27010KT 01/M07 A3035 RMK A01 T00061070  RH  057%=      5-min Rain = 0
KST3 100527Z 27010KT 01/M07 A3035 RMK A01 T00081069  RH  057%=      5-min Rain = 0
KST3 100528Z 27010KT 01/M07 A3035 RMK A01 T00081070  RH  056%=      5-min Rain = 0
KST3 100529Z 27010KT 01/M07 A3035 RMK A01 T00081070  RH  056%=      5-min Rain = 0
KST3 100530Z 27010KT 01/M07 A3035 RMK A01 T00091070  RH  056%=      5-min Rain = 0
KST3 100531Z 27010KT 01/M07 A3035 RMK A01 T00091070  RH  056%=      5-min Rain = 0
KST3 100532Z 27010KT 01/M07 A3035 RMK A01 T00081070  RH  056%=      5-min Rain = 0
KST3 100533Z 27010KT 01/M07 A3035 RMK A01 T00071071  RH  056%=      5-min Rain = 0
KST3 100534Z 27010KT 01/M07 A3035 RMK A01 T00071071  RH  056%=      5-min Rain = 0
KST3 100535Z 27010KT 01/M07 A3035 RMK A01 T00061071  RH  056%=      5-min Rain = 0
KST3 100536Z 27009KT 01/M07 A3035 RMK A01 T00061070  RH  056%=      5-min Rain = 0
KST3 100537Z 27009KT 01/M07 A3035 RMK A01 T00071070  RH  056%=      5-min Rain = 0
KST3 100538Z 27009KT 01/M07 A3034 RMK A01 T00091070  RH  056%=      5-min Rain = 0
KST3 100539Z 27009KT 01/M07 A3034 RMK A01 T00101071  RH  055%=      5-min Rain = 0
KST3 100540Z 26009KT 01/M07 A3034 RMK A01 T00101071  RH  055%=      5-min Rain = 0
KST3 100541Z 27009KT 01/M07 A3034 RMK A01 T00091072  RH  055%=      5-min Rain = 0
KST3 100542Z 27009KT 01/M07 A3034 RMK A01 T00081072  RH  055%=      5-min Rain = 0
KST3 100543Z 27009KT 01/M07 A3034 RMK A01 T00071072  RH  055%=      5-min Rain = 0
KST3 100544Z 27009KT 01/M07 A3034 RMK A01 T00061073  RH  056%=      5-min Rain = 0
KST3 100545Z 27009KT 01/M07 A3034 RMK A01 T00051073  RH  056%=      5-min Rain = 0
KST3 100546Z 27009KT 00/M07 A3034 RMK A01 T00041073  RH  056%=      5-min Rain = 0
KST3 100547Z 27010KT 00/M07 A3034 RMK A01 T00031073  RH  057%=      5-min Rain = 0
KST3 100548Z 28010KT 00/M07 A3034 RMK A01 T00031073  RH  057%=      5-min Rain = 0
KST3 100549Z 27010KT 00/M07 A3034 RMK A01 T00021072  RH  057%=      5-min Rain = 0
KST3 100550Z 27010KT 00/M07 A3034 RMK A01 T00031071  RH  058%=      5-min Rain = 0
KST3 100551Z 27010KT 01/M07 A3034 RMK A01 T00051070  RH  057%=      5-min Rain = 0
KST3 100552Z 27010KT 01/M07 A3034 RMK A01 T00061070  RH  057%=      5-min Rain = 0
KST3 100553Z 27010KT 01/M07 A3034 RMK A01 T00061070  RH  056%=      5-min Rain = 0
KST3 100554Z 27010KT 01/M07 A3034 RMK A01 T00051071  RH  057%=      5-min Rain = 0
KST3 100555Z 27010KT 01/M07 A3034 RMK A01 T00051071  RH  057%=      5-min Rain = 0
KST3 100556Z 27010KT 01/M07 A3034 RMK A01 T00051071  RH  057%=      5-min Rain = 0
KST3 100557Z 27010KT 01/M07 A3034 RMK A01 T00051070  RH  057%=      5-min Rain = 0
KST3 100558Z 27010KT 01/M07 A3034 RMK A01 T00061070  RH  057%=      5-min Rain = 0
KST3 100559Z 27009KT 01/M07 A3034 RMK A01 T00071070  RH  056%=      5-min Rain = 0

Page generated in 0.1771 seconds.